Wetterdaten: Montag, 29.10.2018
Datum Zeit Temp. Aussen Temp. o. S. +5cm Feuchte Auss Luftdruck Regen Sonnenschein Regendauer Solar Windben Empfang
29.10.2018 00:00 5,0 C 4,4 C 4,4 C 86 % 1009,2 hPa 0,0 l/m 0 min 0 min 0 W/m 12,9 km/h (3 Bft) 100,00 %
29.10.2018 00:02 5,0 C 4,4 C 4,4 C 86 % 1009,2 hPa 0,0 l/m 0 min 0 min 0 W/m 6,4 km/h (2 Bft) 12,50 %
29.10.2018 00:04 5,0 C 4,4 C 4,4 C 86 % 1009,4 hPa 0,0 l/m 0 min 0 min 0 W/m 9,7 km/h (2 Bft) 86,05 %
29.10.2018 00:07 5,0 C 4,4 C 4,4 C 86 % 1009,6 hPa 0,0 l/m 0 min 0 min 0 W/m 16,1 km/h (3 Bft) 86,05 %
29.10.2018 00:08 5,0 C 4,4 C 4,4 C 86 % 1009,7 hPa 0,0 l/m 0 min 0 min 0 W/m 16,1 km/h (3 Bft) 86,05 %
29.10.2018 00:10 5,0 C 4,4 C 4,4 C 86 % 1009,7 hPa 0,0 l/m 0 min 0 min 0 W/m 16,1 km/h (3 Bft) 98,58 %
29.10.2018 00:12 5,1 C 4,4 C 4,4 C 86 % 1009,7 hPa 0,0 l/m 0 min 0 min 0 W/m 16,1 km/h (3 Bft) 97,87 %
29.10.2018 00:14 5,1 C 4,4 C 4,4 C 86 % 1009,7 hPa 0,0 l/m 0 min 0 min 0 W/m 12,9 km/h (3 Bft) 100,00 %
29.10.2018 00:16 5,0 C 4,4 C 4,4 C 86 % 1009,6 hPa 0,0 l/m 0 min 0 min 0 W/m 25,7 km/h (4 Bft) 100,00 %
29.10.2018 00:18 5,1 C 4,4 C 4,4 C 86 % 1009,7 hPa 0,0 l/m 0 min 0 min 0 W/m 12,9 km/h (3 Bft) 100,00 %
29.10.2018 00:20 5,1 C 4,4 C 4,4 C 86 % 1009,7 hPa 0,0 l/m 0 min 0 min 0 W/m 16,1 km/h (3 Bft) 100,00 %
29.10.2018 00:22 5,1 C 4,4 C 4,4 C 86 % 1009,5 hPa 0,0 l/m 0 min 0 min 0 W/m 16,1 km/h (3 Bft) 100,00 %
29.10.2018 00:24 5,1 C 4,4 C 4,4 C 86 % 1009,6 hPa 0,0 l/m 0 min 0 min 0 W/m 19,3 km/h (3 Bft) 100,00 %
29.10.2018 00:26 5,1 C 4,4 C 4,4 C 86 % 1009,3 hPa 0,0 l/m 0 min 0 min 0 W/m 16,1 km/h (3 Bft) 100,00 %
29.10.2018 00:28 5,1 C 4,4 C 4,4 C 86 % 1009,2 hPa 0,0 l/m 0 min 0 min 0 W/m 16,1 km/h (3 Bft) 100,00 %
29.10.2018 00:30 5,1 C 4,4 C 4,4 C 86 % 1009,5 hPa 0,0 l/m 0 min 0 min 0 W/m 12,9 km/h (3 Bft) 100,00 %
29.10.2018 00:32 5,1 C 4,4 C 4,4 C 86 % 1009,6 hPa 0,0 l/m 0 min 0 min 0 W/m 29,0 km/h (5 Bft) 100,00 %
29.10.2018 00:34 5,1 C 4,4 C 4,4 C 86 % 1009,8 hPa 0,0 l/m 0 min 0 min 0 W/m 19,3 km/h (3 Bft) 97,87 %
29.10.2018 00:38 5,1 C 4,4 C 4,4 C 86 % 1009,9 hPa 0,0 l/m 0 min 0 min 0 W/m 22,5 km/h (4 Bft) 100,00 %
29.10.2018 00:40 5,1 C 5,0 C 4,4 C 86 % 1009,8 hPa 0,0 l/m 0 min 0 min 0 W/m 22,5 km/h (4 Bft) 100,00 %
29.10.2018 00:42 5,1 C 5,0 C 4,4 C 86 % 1009,7 hPa 0,0 l/m 0 min 0 min 0 W/m 16,1 km/h (3 Bft) 97,87 %
29.10.2018 00:44 5,1 C 5,0 C 4,4 C 86 % 1009,7 hPa 0,0 l/m 0 min 0 min 0 W/m 35,4 km/h (5 Bft) 100,00 %
29.10.2018 00:46 5,1 C 5,0 C 4,4 C 86 % 1009,7 hPa 0,0 l/m 0 min 0 min 0 W/m 25,7 km/h (4 Bft) 100,00 %
29.10.2018 00:48 5,1 C 5,0 C 4,4 C 86 % 1009,7 hPa 0,0 l/m 0 min 0 min 0 W/m 9,7 km/h (2 Bft) 100,00 %
29.10.2018 00:50 5,1 C 5,0 C 4,4 C 86 % 1009,5 hPa 0,0 l/m 0 min 0 min 0 W/m 22,5 km/h (4 Bft) 100,00 %
29.10.2018 00:52 5,1 C 5,0 C 4,4 C 86 % 1009,5 hPa 0,0 l/m 0 min 0 min 0 W/m 19,3 km/h (3 Bft) 100,00 %
29.10.2018 00:54 5,1 C 5,0 C 4,4 C 86 % 1009,5 hPa 0,0 l/m 0 min 0 min 0 W/m 12,9 km/h (3 Bft) 97,87 %
29.10.2018 00:56 5,1 C 4,4 C 4,4 C 86 % 1009,5 hPa 0,0 l/m 0 min 0 min 0 W/m 9,7 km/h (2 Bft) 97,87 %
29.10.2018 00:58 5,1 C 4,4 C 4,4 C 86 % 1009,5 hPa 0,0 l/m 0 min 0 min 0 W/m 12,9 km/h (3 Bft) 100,00 %
29.10.2018 01:00 5,1 C 4,4 C 4,4 C 86 % 1009,5 hPa 0,0 l/m 0 min 0 min 0 W/m 19,3 km/h (3 Bft) 100,00 %
29.10.2018 01:02 5,1 C 4,4 C 4,4 C 86 % 1009,5 hPa 0,0 l/m 0 min 0 min 0 W/m 16,1 km/h (3 Bft) 100,00 %
29.10.2018 01:04 5,1 C 4,4 C 4,4 C 86 % 1009,5 hPa 0,0 l/m 0 min 0 min 0 W/m 16,1 km/h (3 Bft) 95,65 %
29.10.2018 01:08 5,1 C 4,4 C 4,4 C 86 % 1009,4 hPa 0,0 l/m 0 min 0 min 0 W/m 16,1 km/h (3 Bft) 97,87 %
29.10.2018 01:10 5,1 C 4,4 C 4,4 C 86 % 1009,4 hPa 0,0 l/m 0 min 0 min 0 W/m 6,4 km/h (2 Bft) 96,00 %
29.10.2018 01:12 5,1 C 4,4 C 4,4 C 86 % 1009,4 hPa 0,0 l/m 0 min 0 min 0 W/m 9,7 km/h (2 Bft) 95,74 %
29.10.2018 01:14 5,1 C 4,4 C 4,4 C 86 % 1009,3 hPa 0,0 l/m 0 min 0 min 0 W/m 25,7 km/h (4 Bft) 95,65 %
29.10.2018 01:16 5,1 C 4,4 C 4,4 C 86 % 1009,3 hPa 0,0 l/m 0 min 0 min 0 W/m 9,7 km/h (2 Bft) 97,96 %
29.10.2018 01:18 5,1 C 4,4 C 4,4 C 86 % 1009,3 hPa 0,0 l/m 0 min 0 min 0 W/m 22,5 km/h (4 Bft) 97,87 %
29.10.2018 01:20 5,2 C 5,0 C 4,4 C 86 % 1009,3 hPa 0,0 l/m 0 min 0 min 0 W/m 16,1 km/h (3 Bft) 97,87 %
29.10.2018 01:22 5,2 C 5,0 C 4,4 C 86 % 1009,3 hPa 0,0 l/m 0 min 0 min 0 W/m 16,1 km/h (3 Bft) 95,74 %
29.10.2018 01:24 5,2 C 5,0 C 4,4 C 85 % 1009,2 hPa 0,0 l/m 0 min 0 min 0 W/m 16,1 km/h (3 Bft) 97,83 %
29.10.2018 01:26 5,2 C 5,0 C 4,4 C 85 % 1009,2 hPa 0,0 l/m 0 min 0 min 0 W/m 16,1 km/h (3 Bft) 93,62 %
29.10.2018 01:28 5,2 C 4,4 C 4,4 C 85 % 1009,2 hPa 0,0 l/m 0 min 0 min 0 W/m 16,1 km/h (3 Bft) 93,62 %
29.10.2018 01:30 5,2 C 4,4 C 4,4 C 85 % 1009,1 hPa 0,0 l/m 0 min 0 min 0 W/m 29,0 km/h (5 Bft) 95,74 %
29.10.2018 01:32 5,2 C 5,0 C 4,4 C 85 % 1009,1 hPa 0,0 l/m 0 min 0 min 0 W/m 22,5 km/h (4 Bft) 93,62 %
29.10.2018 01:34 5,2 C 5,0 C 4,4 C 85 % 1009,1 hPa 0,0 l/m 0 min 0 min 0 W/m 16,1 km/h (3 Bft) 95,74 %
29.10.2018 01:38 5,2 C 5,0 C 4,4 C 85 % 1009,3 hPa 0,0 l/m 0 min 0 min 0 W/m 12,9 km/h (3 Bft) 96,34 %
29.10.2018 01:40 5,2 C 4,4 C 4,4 C 85 % 1009,3 hPa 0,0 l/m 0 min 0 min 0 W/m 19,3 km/h (3 Bft) 93,48 %
29.10.2018 01:42 5,2 C 5,0 C 4,4 C 85 % 1009,3 hPa 0,0 l/m 0 min 0 min 0 W/m 22,5 km/h (4 Bft) 95,74 %
29.10.2018 01:44 5,2 C 5,0 C 4,4 C 85 % 1009,3 hPa 0,0 l/m 0 min 0 min 0 W/m 25,7 km/h (4 Bft) 97,87 %
29.10.2018 01:46 5,2 C 4,4 C 4,4 C 85 % 1009,2 hPa 0,0 l/m 0 min 0 min 0 W/m 12,9 km/h (3 Bft) 95,74 %
29.10.2018 01:48 5,2 C 4,4 C 4,4 C 85 % 1009,2 hPa 0,0 l/m 0 min 0 min 0 W/m 16,1 km/h (3 Bft) 95,74 %
29.10.2018 01:50 5,2 C 4,4 C 4,4 C 85 % 1009,4 hPa 0,0 l/m 0 min 0 min 0 W/m 22,5 km/h (4 Bft) 96,55 %
29.10.2018 01:52 5,2 C 4,4 C 4,4 C 85 % 1009,4 hPa 0,0 l/m 0 min 0 min 0 W/m 12,9 km/h (3 Bft) 97,14 %
29.10.2018 01:54 5,2 C 4,4 C 4,4 C 85 % 1009,4 hPa 0,0 l/m 0 min 0 min 0 W/m 9,7 km/h (2 Bft) 97,87 %
29.10.2018 01:56 5,2 C 4,4 C 4,4 C 85 % 1009,4 hPa 0,0 l/m 0 min 0 min 0 W/m 16,1 km/h (3 Bft) 97,87 %
29.10.2018 01:58 5,2 C 4,4 C 4,4 C 85 % 1009,4 hPa 0,0 l/m 0 min 0 min 0 W/m 12,9 km/h (3 Bft) 97,87 %
29.10.2018 02:00 5,2 C 5,0 C 4,4 C 85 % 1009,5 hPa 0,0 l/m 0 min 0 min 0 W/m 16,1 km/h (3 Bft) 97,87 %
29.10.2018 02:02 5,2 C 4,4 C 4,4 C 85 % 1009,4 hPa 0,0 l/m 0 min 0 min 0 W/m 9,7 km/h (2 Bft) 95,74 %
29.10.2018 02:04 5,2 C 4,4 C 4,4 C 85 % 1009,4 hPa 0,0 l/m 0 min 0 min 0 W/m 16,1 km/h (3 Bft) 95,65 %
29.10.2018 02:08 5,2 C 4,4 C 4,4 C 85 % 1009,4 hPa 0,0 l/m 0 min 0 min 0 W/m 9,7 km/h (2 Bft) 95,74 %
29.10.2018 02:10 5,2 C 4,4 C 4,4 C 85 % 1009,3 hPa 0,0 l/m 0 min 0 min 0 W/m 16,1 km/h (3 Bft) 97,87 %
29.10.2018 02:12 5,2 C 4,4 C 4,4 C 86 % 1009,3 hPa 0,0 l/m 0 min 0 min 0 W/m 9,7 km/h (2 Bft) 97,87 %
29.10.2018 02:14 5,2 C 4,4 C 4,4 C 86 % 1009,3 hPa 0,0 l/m 0 min 0 min 0 W/m 9,7 km/h (2 Bft) 97,87 %
29.10.2018 02:16 5,2 C 4,4 C 4,4 C 86 % 1009,3 hPa 0,0 l/m 0 min 0 min 0 W/m 12,9 km/h (3 Bft) 95,65 %
29.10.2018 02:18 5,2 C 4,4 C 4,4 C 86 % 1009,2 hPa 0,0 l/m 0 min 0 min 0 W/m 9,7 km/h (2 Bft) 97,87 %
29.10.2018 02:20 5,2 C 4,4 C 4,4 C 85 % 1009,1 hPa 0,0 l/m 0 min 0 min 0 W/m 9,7 km/h (2 Bft) 98,31 %
29.10.2018 02:22 5,2 C 4,4 C 4,4 C 86 % 1009,1 hPa 0,0 l/m 0 min 0 min 0 W/m 16,1 km/h (3 Bft) 97,14 %
29.10.2018 02:24 5,2 C 4,4 C 4,4 C 86 % 1009,0 hPa 0,0 l/m 0 min 0 min 0 W/m 9,7 km/h (2 Bft) 95,74 %
29.10.2018 02:26 5,2 C 4,4 C 4,4 C 86 % 1008,9 hPa 0,0 l/m 0 min 0 min 0 W/m 16,1 km/h (3 Bft) 97,87 %
29.10.2018 02:28 5,2 C 4,4 C 4,4 C 86 % 1008,8 hPa 0,0 l/m 0 min 0 min 0 W/m 12,9 km/h (3 Bft) 97,83 %
29.10.2018 02:30 5,2 C 4,4 C 4,4 C 86 % 1008,8 hPa 0,0 l/m 0 min 0 min 0 W/m 12,9 km/h (3 Bft) 95,74 %
29.10.2018 02:32 5,2 C 4,4 C 4,4 C 86 % 1008,8 hPa 0,0 l/m 0 min 0 min 0 W/m 9,7 km/h (2 Bft) 97,87 %
29.10.2018 02:34 5,1 C 4,4 C 4,4 C 86 % 1009,0 hPa 0,0 l/m 0 min 0 min 0 W/m 9,7 km/h (2 Bft) 97,87 %
29.10.2018 02:38 5,1 C 4,4 C 4,4 C 86 % 1009,1 hPa 0,0 l/m 0 min 0 min 0 W/m 12,9 km/h (3 Bft) 96,77 %
29.10.2018 02:40 5,1 C 4,4 C 4,4 C 86 % 1009,1 hPa 0,0 l/m 0 min 0 min 0 W/m 12,9 km/h (3 Bft) 97,87 %
29.10.2018 02:42 5,1 C 4,4 C 4,4 C 86 % 1009,2 hPa 0,0 l/m 0 min 0 min 0 W/m 9,7 km/h (2 Bft) 95,74 %
29.10.2018 02:44 5,1 C 4,4 C 4,4 C 86 % 1009,1 hPa 0,0 l/m 0 min 0 min 0 W/m 12,9 km/h (3 Bft) 97,87 %
29.10.2018 02:46 5,1 C 4,4 C 4,4 C 86 % 1009,0 hPa 0,0 l/m 0 min 0 min 0 W/m 12,9 km/h (3 Bft) 95,74 %
29.10.2018 02:48 5,1 C 4,4 C 4,4 C 86 % 1009,0 hPa 0,0 l/m 0 min 0 min 0 W/m 12,9 km/h (3 Bft) 97,87 %
29.10.2018 02:50 5,1 C 4,4 C 4,4 C 86 % 1008,8 hPa 0,0 l/m 0 min 0 min 0 W/m 12,9 km/h (3 Bft) 98,28 %
29.10.2018 02:52 5,1 C 4,4 C 4,4 C 86 % 1008,7 hPa 0,0 l/m 0 min 0 min 0 W/m 12,9 km/h (3 Bft) 97,14 %
29.10.2018 02:54 5,1 C 4,4 C 4,4 C 86 % 1008,6 hPa 0,0 l/m 0 min 0 min 0 W/m 16,1 km/h (3 Bft) 97,87 %
29.10.2018 02:56 5,1 C 4,4 C 4,4 C 86 % 1008,5 hPa 0,0 l/m 0 min 0 min 0 W/m 12,9 km/h (3 Bft) 95,74 %
29.10.2018 02:58 5,1 C 4,4 C 4,4 C 86 % 1008,3 hPa 0,0 l/m 0 min 0 min 0 W/m 12,9 km/h (3 Bft) 95,74 %
29.10.2018 03:00 5,1 C 4,4 C 4,4 C 86 % 1008,3 hPa 0,0 l/m 0 min 0 min 0 W/m 22,5 km/h (4 Bft) 95,74 %
29.10.2018 03:02 5,1 C 4,4 C 4,4 C 86 % 1008,2 hPa 0,0 l/m 0 min 0 min 0 W/m 9,7 km/h (2 Bft) 97,83 %
29.10.2018 03:04 5,1 C 4,4 C 4,4 C 86 % 1008,2 hPa 0,0 l/m 0 min 0 min 0 W/m 12,9 km/h (3 Bft) 97,87 %
29.10.2018 03:08 5,1 C 4,4 C 4,4 C 86 % 1008,1 hPa 0,0 l/m 0 min 0 min 0 W/m 12,9 km/h (3 Bft) 97,87 %
29.10.2018 03:10 5,1 C 4,4 C 4,4 C 86 % 1008,0 hPa 0,0 l/m 0 min 0 min 0 W/m 19,3 km/h (3 Bft) 97,87 %
29.10.2018 03:12 5,1 C 4,4 C 4,4 C 86 % 1008,0 hPa 0,0 l/m 0 min 0 min 0 W/m 16,1 km/h (3 Bft) 97,87 %
29.10.2018 03:14 5,1 C 4,4 C 4,4 C 86 % 1008,1 hPa 0,0 l/m 0 min 0 min 0 W/m 25,7 km/h (4 Bft) 97,83 %
29.10.2018 03:16 5,1 C 4,4 C 4,4 C 86 % 1008,0 hPa 0,0 l/m 0 min 0 min 0 W/m 16,1 km/h (3 Bft) 97,87 %
29.10.2018 03:18 5,0 C 4,4 C 4,4 C 86 % 1008,0 hPa 0,0 l/m 0 min 0 min 0 W/m 16,1 km/h (3 Bft) 97,87 %
29.10.2018 03:20 5,1 C 4,4 C 4,4 C 86 % 1008,0 hPa 0,0 l/m 0 min 0 min 0 W/m 22,5 km/h (4 Bft) 98,31 %
29.10.2018 03:22 5,1 C 4,4 C 4,4 C 86 % 1008,0 hPa 0,0 l/m 0 min 0 min 0 W/m 25,7 km/h (4 Bft) 100,00 %
29.10.2018 03:24 5,0 C 4,4 C 4,4 C 87 % 1007,9 hPa 0,0 l/m 0 min 0 min 0 W/m 12,9 km/h (3 Bft) 97,83 %
29.10.2018 03:26 5,0 C 4,4 C 4,4 C 86 % 1007,9 hPa 0,0 l/m 0 min 0 min 0 W/m 9,7 km/h (2 Bft) 97,87 %
29.10.2018 03:28 5,0 C 4,4 C 4,4 C 86 % 1007,9 hPa 0,0 l/m 0 min 0 min 0 W/m 22,5 km/h (4 Bft) 97,87 %
29.10.2018 03:30 5,0 C 4,4 C 4,4 C 87 % 1007,9 hPa 0,0 l/m 0 min 0 min 0 W/m 22,5 km/h (4 Bft) 95,74 %
29.10.2018 03:32 5,0 C 4,4 C 4,4 C 87 % 1008,0 hPa 0,0 l/m 0 min 0 min 0 W/m 12,9 km/h (3 Bft) 97,87 %
29.10.2018 03:34 5,0 C 4,4 C 4,4 C 87 % 1008,0 hPa 0,0 l/m 0 min 0 min 0 W/m 12,9 km/h (3 Bft) 97,87 %
29.10.2018 03:38 5,0 C 4,4 C 4,4 C 87 % 1007,9 hPa 0,0 l/m 0 min 0 min 0 W/m 29,0 km/h (5 Bft) 96,77 %
29.10.2018 03:40 5,0 C 4,4 C 4,4 C 87 % 1007,9 hPa 0,0 l/m 0 min 0 min 0 W/m 16,1 km/h (3 Bft) 97,87 %
29.10.2018 03:42 5,0 C 4,4 C 4,4 C 87 % 1007,9 hPa 0,0 l/m 0 min 0 min 0 W/m 12,9 km/h (3 Bft) 97,87 %
29.10.2018 03:44 4,9 C 4,4 C 4,4 C 87 % 1007,9 hPa 0,0 l/m 0 min 0 min 0 W/m 19,3 km/h (3 Bft) 97,87 %
29.10.2018 03:46 4,9 C 4,4 C 4,4 C 87 % 1007,8 hPa 0,0 l/m 0 min 0 min 0 W/m 9,7 km/h (2 Bft) 95,74 %
29.10.2018 03:48 4,9 C 4,4 C 4,4 C 87 % 1007,8 hPa 0,0 l/m 0 min 0 min 0 W/m 16,1 km/h (3 Bft) 100,00 %
29.10.2018 03:50 4,9 C 4,4 C 4,4 C 87 % 1007,7 hPa 0,0 l/m 0 min 0 min 0 W/m 12,9 km/h (3 Bft) 96,61 %
29.10.2018 03:52 4,9 C 4,4 C 4,4 C 87 % 1007,6 hPa 0,0 l/m 0 min 0 min 0 W/m 16,1 km/h (3 Bft) 100,00 %
29.10.2018 03:54 4,9 C 4,4 C 3,9 C 87 % 1007,5 hPa 0,0 l/m 0 min 0 min 0 W/m 9,7 km/h (2 Bft) 95,74 %
29.10.2018 03:56 4,9 C 4,4 C 3,9 C 87 % 1007,6 hPa 0,0 l/m 0 min 0 min 0 W/m 9,7 km/h (2 Bft) 97,87 %
29.10.2018 03:58 4,9 C 4,4 C 3,9 C 87 % 1007,5 hPa 0,0 l/m 0 min 0 min 0 W/m 12,9 km/h (3 Bft) 97,87 %
29.10.2018 04:00 4,9 C 4,4 C 3,9 C 87 % 1007,5 hPa 0,0 l/m 0 min 0 min 0 W/m 12,9 km/h (3 Bft) 97,83 %
29.10.2018 04:05 4,9 C 4,4 C 3,9 C 87 % 1007,7 hPa 0,0 l/m 0 min 0 min 0 W/m 19,3 km/h (3 Bft) 96,67 %
29.10.2018 04:06 4,9 C 4,4 C 3,9 C 87 % 1007,7 hPa 0,0 l/m 0 min 0 min 0 W/m 16,1 km/h (3 Bft) 100,00 %
29.10.2018 04:08 4,9 C 4,4 C 3,9 C 87 % 1007,7 hPa 0,0 l/m 0 min 0 min 0 W/m 9,7 km/h (2 Bft) 97,87 %
29.10.2018 04:10 4,9 C 4,4 C 3,9 C 87 % 1007,7 hPa 0,0 l/m 0 min 0 min 0 W/m 16,1 km/h (3 Bft) 95,74 %
29.10.2018 04:12 4,9 C 4,4 C 3,9 C 87 % 1007,6 hPa 0,0 l/m 0 min 0 min 0 W/m 12,9 km/h (3 Bft) 95,65 %
29.10.2018 04:14 4,9 C 4,4 C 3,9 C 87 % 1007,8 hPa 0,0 l/m 0 min 0 min 0 W/m 16,1 km/h (3 Bft) 97,87 %
29.10.2018 04:16 4,9 C 4,4 C 3,9 C 87 % 1007,8 hPa 0,0 l/m 0 min 0 min 0 W/m 12,9 km/h (3 Bft) 97,87 %
29.10.2018 04:18 4,9 C 4,4 C 3,9 C 87 % 1007,8 hPa 0,0 l/m 0 min 0 min 0 W/m 9,7 km/h (2 Bft) 97,87 %
29.10.2018 04:20 4,9 C 4,4 C 3,9 C 87 % 1007,8 hPa 0,0 l/m 0 min 0 min 0 W/m 19,3 km/h (3 Bft) 98,28 %
29.10.2018 04:22 4,9 C 4,4 C 3,9 C 87 % 1007,8 hPa 0,0 l/m 0 min 0 min 0 W/m 9,7 km/h (2 Bft) 97,22 %
29.10.2018 04:24 4,8 C 4,4 C 3,9 C 87 % 1007,8 hPa 0,0 l/m 0 min 0 min 0 W/m 22,5 km/h (4 Bft) 97,83 %
29.10.2018 04:26 4,8 C 4,4 C 3,9 C 87 % 1007,8 hPa 0,0 l/m 0 min 0 min 0 W/m 16,1 km/h (3 Bft) 97,87 %
29.10.2018 04:28 4,8 C 4,4 C 3,9 C 87 % 1007,8 hPa 0,0 l/m 0 min 0 min 0 W/m 6,4 km/h (2 Bft) 97,87 %
29.10.2018 04:30 4,8 C 4,4 C 3,9 C 87 % 1007,9 hPa 0,0 l/m 0 min 0 min 0 W/m 16,1 km/h (3 Bft) 97,87 %
29.10.2018 04:32 4,8 C 4,4 C 3,9 C 87 % 1007,9 hPa 0,0 l/m 0 min 0 min 0 W/m 19,3 km/h (3 Bft) 97,87 %
29.10.2018 04:34 4,8 C 4,4 C 3,9 C 87 % 1007,8 hPa 0,0 l/m 0 min 0 min 0 W/m 12,9 km/h (3 Bft) 97,87 %
29.10.2018 04:38 4,8 C 4,4 C 3,9 C 87 % 1007,7 hPa 0,0 l/m 0 min 0 min 0 W/m 19,3 km/h (3 Bft) 97,85 %
29.10.2018 04:40 4,8 C 4,4 C 4,4 C 87 % 1007,7 hPa 0,0 l/m 0 min 0 min 0 W/m 16,1 km/h (3 Bft) 97,87 %
29.10.2018 04:42 4,8 C 4,4 C 3,9 C 87 % 1007,7 hPa 0,0 l/m 0 min 0 min 0 W/m 9,7 km/h (2 Bft) 97,87 %
29.10.2018 04:44 4,8 C 4,4 C 3,9 C 87 % 1007,6 hPa 0,0 l/m 0 min 0 min 0 W/m 22,5 km/h (4 Bft) 95,74 %
29.10.2018 04:46 4,8 C 4,4 C 3,9 C 87 % 1007,6 hPa 0,0 l/m 0 min 0 min 0 W/m 9,7 km/h (2 Bft) 95,65 %
29.10.2018 04:48 4,8 C 4,4 C 3,9 C 88 % 1007,6 hPa 0,0 l/m 0 min 0 min 0 W/m 12,9 km/h (3 Bft) 97,87 %
29.10.2018 04:50 4,8 C 4,4 C 3,9 C 88 % 1007,6 hPa 0,0 l/m 0 min 0 min 0 W/m 12,9 km/h (3 Bft) 96,61 %
29.10.2018 04:52 4,8 C 4,4 C 3,9 C 88 % 1007,6 hPa 0,0 l/m 0 min 0 min 0 W/m 6,4 km/h (2 Bft) 97,14 %
29.10.2018 04:54 4,8 C 4,4 C 3,9 C 88 % 1007,5 hPa 0,0 l/m 0 min 0 min 0 W/m 9,7 km/h (2 Bft) 97,87 %
29.10.2018 04:56 4,8 C 4,4 C 3,9 C 88 % 1007,5 hPa 0,0 l/m 0 min 0 min 0 W/m 19,3 km/h (3 Bft) 95,74 %
29.10.2018 04:58 4,8 C 4,4 C 3,9 C 88 % 1007,4 hPa 0,0 l/m 0 min 0 min 0 W/m 19,3 km/h (3 Bft) 97,83 %
29.10.2018 05:00 4,8 C 4,4 C 4,4 C 88 % 1007,5 hPa 0,0 l/m 0 min 0 min 0 W/m 25,7 km/h (4 Bft) 100,00 %
29.10.2018 05:02 4,8 C 4,4 C 3,9 C 88 % 1007,5 hPa 0,0 l/m 0 min 0 min 0 W/m 12,9 km/h (3 Bft) 100,00 %
29.10.2018 05:04 4,8 C 4,4 C 4,4 C 88 % 1007,5 hPa 0,0 l/m 0 min 0 min 0 W/m 12,9 km/h (3 Bft) 100,00 %
29.10.2018 05:05 4,8 C 4,4 C 3,9 C 88 % 1007,4 hPa 0,0 l/m 0 min 0 min 0 W/m 12,9 km/h (3 Bft) 100,00 %
29.10.2018 05:10 4,8 C 4,4 C 4,4 C 88 % 1007,5 hPa 0,0 l/m 0 min 0 min 0 W/m 16,1 km/h (3 Bft) 100,00 %
29.10.2018 05:12 4,8 C 4,4 C 4,4 C 88 % 1007,4 hPa 0,0 l/m 0 min 0 min 0 W/m 6,4 km/h (2 Bft) 100,00 %
29.10.2018 05:14 4,8 C 4,4 C 4,4 C 88 % 1007,3 hPa 0,0 l/m 0 min 0 min 0 W/m 9,7 km/h (2 Bft) 95,74 %
29.10.2018 05:19 4,8 C 4,4 C 3,9 C 88 % 1007,3 hPa 0,0 l/m 0 min 0 min 0 W/m 19,3 km/h (3 Bft) 98,41 %
29.10.2018 05:20 4,8 C 4,4 C 3,9 C 88 % 1007,3 hPa 0,0 l/m 0 min 0 min 0 W/m 6,4 km/h (2 Bft) 100,00 %
29.10.2018 05:22 4,8 C 4,4 C 4,4 C 88 % 1007,3 hPa 0,0 l/m 0 min 0 min 0 W/m 12,9 km/h (3 Bft) 100,00 %
29.10.2018 05:24 4,8 C 4,4 C 4,4 C 88 % 1007,3 hPa 0,0 l/m 0 min 0 min 0 W/m 6,4 km/h (2 Bft) 100,00 %
29.10.2018 05:26 4,8 C 4,4 C 4,4 C 88 % 1007,4 hPa 0,0 l/m 0 min 0 min 0 W/m 9,7 km/h (2 Bft) 100,00 %
29.10.2018 05:28 4,8 C 4,4 C 4,4 C 88 % 1007,3 hPa 0,0 l/m 0 min 0 min 0 W/m 9,7 km/h (2 Bft) 100,00 %
29.10.2018 05:30 4,8 C 4,4 C 4,4 C 88 % 1007,3 hPa 0,0 l/m 0 min 0 min 0 W/m 12,9 km/h (3 Bft) 100,00 %
29.10.2018 05:32 4,8 C 4,4 C 4,4 C 88 % 1007,2 hPa 0,0 l/m 0 min 0 min 0 W/m 12,9 km/h (3 Bft) 100,00 %
29.10.2018 05:34 4,8 C 4,4 C 4,4 C 88 % 1007,2 hPa 0,0 l/m 0 min 0 min 0 W/m 9,7 km/h (2 Bft) 100,00 %
29.10.2018 05:38 4,8 C 4,4 C 3,9 C 88 % 1007,0 hPa 0,0 l/m 0 min 0 min 0 W/m 16,1 km/h (3 Bft) 100,00 %
29.10.2018 05:40 4,8 C 4,4 C 3,9 C 88 % 1006,9 hPa 0,0 l/m 0 min 0 min 0 W/m 9,7 km/h (2 Bft) 97,87 %
29.10.2018 05:42 4,8 C 4,4 C 3,9 C 88 % 1006,9 hPa 0,0 l/m 0 min 0 min 0 W/m 22,5 km/h (4 Bft) 100,00 %
29.10.2018 05:44 4,8 C 4,4 C 3,9 C 88 % 1006,9 hPa 0,0 l/m 0 min 0 min 0 W/m 16,1 km/h (3 Bft) 97,87 %
29.10.2018 05:46 4,8 C 4,4 C 3,9 C 88 % 1006,8 hPa 0,0 l/m 0 min 0 min 0 W/m 9,7 km/h (2 Bft) 97,87 %
29.10.2018 05:48 4,8 C 4,4 C 3,9 C 88 % 1006,8 hPa 0,0 l/m 0 min 0 min 0 W/m 9,7 km/h (2 Bft) 97,83 %
29.10.2018 05:50 4,8 C 4,4 C 3,9 C 88 % 1006,6 hPa 0,0 l/m 0 min 0 min 0 W/m 25,7 km/h (4 Bft) 97,87 %
29.10.2018 05:52 4,8 C 4,4 C 3,9 C 88 % 1006,6 hPa 0,0 l/m 0 min 0 min 0 W/m 12,9 km/h (3 Bft) 97,87 %
29.10.2018 05:54 4,8 C 4,4 C 3,9 C 88 % 1006,5 hPa 0,0 l/m 0 min 0 min 0 W/m 22,5 km/h (4 Bft) 100,00 %
29.10.2018 05:56 4,8 C 4,4 C 3,9 C 88 % 1006,4 hPa 0,0 l/m 0 min 0 min 0 W/m 19,3 km/h (3 Bft) 95,74 %
29.10.2018 05:58 4,8 C 4,4 C 3,9 C 88 % 1006,3 hPa 0,0 l/m 0 min 0 min 0 W/m 16,1 km/h (3 Bft) 93,62 %
29.10.2018 06:00 4,8 C 4,4 C 3,9 C 88 % 1006,2 hPa 0,0 l/m 0 min 0 min 0 W/m 19,3 km/h (3 Bft) 93,48 %
29.10.2018 06:02 4,8 C 4,4 C 3,9 C 88 % 1006,1 hPa 0,0 l/m 0 min 0 min 0 W/m 22,5 km/h (4 Bft) 95,74 %
29.10.2018 06:04 4,8 C 4,4 C 3,9 C 88 % 1006,1 hPa 0,0 l/m 0 min 0 min 0 W/m 22,5 km/h (4 Bft) 95,74 %
29.10.2018 06:08 4,8 C 4,4 C 3,9 C 88 % 1006,1 hPa 0,0 l/m 0 min 0 min 0 W/m 22,5 km/h (4 Bft) 94,68 %
29.10.2018 06:10 4,8 C 4,4 C 3,9 C 88 % 1006,1 hPa 0,0 l/m 0 min 0 min 0 W/m 12,9 km/h (3 Bft) 95,74 %
29.10.2018 06:12 4,8 C 4,4 C 3,9 C 88 % 1006,1 hPa 0,0 l/m 0 min 0 min 0 W/m 9,7 km/h (2 Bft) 95,65 %
29.10.2018 06:14 4,8 C 4,4 C 3,9 C 88 % 1006,0 hPa 0,0 l/m 0 min 0 min 0 W/m 6,4 km/h (2 Bft) 95,74 %
29.10.2018 06:16 4,8 C 4,4 C 3,9 C 88 % 1006,0 hPa 0,0 l/m 0 min 0 min 0 W/m 9,7 km/h (2 Bft) 97,87 %
29.10.2018 06:18 4,8 C 4,4 C 3,9 C 88 % 1006,1 hPa 0,0 l/m 0 min 0 min 0 W/m 19,3 km/h (3 Bft) 95,74 %
29.10.2018 06:20 4,8 C 4,4 C 3,9 C 88 % 1006,0 hPa 0,0 l/m 0 min 0 min 0 W/m 19,3 km/h (3 Bft) 95,74 %
29.10.2018 06:22 4,8 C 4,4 C 3,9 C 88 % 1006,1 hPa 0,0 l/m 0 min 0 min 0 W/m 19,3 km/h (3 Bft) 95,74 %
29.10.2018 06:24 4,8 C 4,4 C 3,9 C 89 % 1006,1 hPa 0,0 l/m 0 min 0 min 0 W/m 19,3 km/h (3 Bft) 95,74 %
29.10.2018 06:26 4,8 C 4,4 C 3,9 C 89 % 1006,2 hPa 0,0 l/m 0 min 0 min 0 W/m 9,7 km/h (2 Bft) 95,74 %
29.10.2018 06:28 4,8 C 4,4 C 3,9 C 89 % 1006,2 hPa 0,0 l/m 0 min 0 min 0 W/m 9,7 km/h (2 Bft) 93,62 %
29.10.2018 06:30 4,8 C 4,4 C 3,9 C 89 % 1006,2 hPa 0,0 l/m 0 min 0 min 0 W/m 19,3 km/h (3 Bft) 95,74 %
29.10.2018 06:32 4,8 C 4,4 C 3,9 C 89 % 1006,2 hPa 0,0 l/m 0 min 0 min 0 W/m 19,3 km/h (3 Bft) 93,62 %
29.10.2018 06:34 4,8 C 4,4 C 3,9 C 89 % 1006,0 hPa 0,0 l/m 0 min 0 min 0 W/m 9,7 km/h (2 Bft) 95,65 %
29.10.2018 06:38 4,8 C 4,4 C 3,9 C 88 % 1006,0 hPa 0,0 l/m 0 min 0 min 0 W/m 25,7 km/h (4 Bft) 96,81 %
29.10.2018 06:40 4,8 C 4,4 C 3,9 C 88 % 1006,0 hPa 0,0 l/m 0 min 0 min 0 W/m 22,5 km/h (4 Bft) 100,00 %
29.10.2018 06:42 4,8 C 4,4 C 3,9 C 89 % 1006,0 hPa 0,0 l/m 0 min 0 min 0 W/m 22,5 km/h (4 Bft) 97,87 %
29.10.2018 06:44 4,8 C 4,4 C 3,9 C 89 % 1006,1 hPa 0,0 l/m 0 min 0 min 0 W/m 9,7 km/h (2 Bft) 95,74 %
29.10.2018 06:46 4,8 C 4,4 C 3,9 C 89 % 1006,3 hPa 0,0 l/m 0 min 0 min 0 W/m 12,9 km/h (3 Bft) 97,83 %
29.10.2018 06:48 4,8 C 4,4 C 3,9 C 89 % 1006,3 hPa 0,0 l/m 0 min 0 min 0 W/m 6,4 km/h (2 Bft) 95,74 %
29.10.2018 06:50 4,8 C 4,4 C 3,9 C 89 % 1006,4 hPa 0,0 l/m 0 min 0 min 0 W/m 9,7 km/h (2 Bft) 97,87 %
29.10.2018 06:52 4,8 C 4,4 C 3,9 C 89 % 1006,4 hPa 0,0 l/m 0 min 0 min 0 W/m 16,1 km/h (3 Bft) 95,74 %
29.10.2018 06:54 4,8 C 4,4 C 3,9 C 89 % 1006,2 hPa 0,0 l/m 0 min 0 min 0 W/m 9,7 km/h (2 Bft) 97,87 %
29.10.2018 06:56 4,8 C 4,4 C 3,9 C 89 % 1006,2 hPa 0,0 l/m 0 min 0 min 0 W/m 22,5 km/h (4 Bft) 97,87 %
29.10.2018 06:58 4,8 C 4,4 C 4,4 C 89 % 1006,3 hPa 0,0 l/m 0 min 0 min 0 W/m 16,1 km/h (3 Bft) 93,48 %
29.10.2018 07:00 4,8 C 4,4 C 4,4 C 89 % 1006,3 hPa 0,0 l/m 0 min 0 min 0 W/m 19,3 km/h (3 Bft) 93,62 %
29.10.2018 07:02 4,8 C 4,4 C 3,9 C 89 % 1006,2 hPa 0,0 l/m 0 min 0 min 0 W/m 12,9 km/h (3 Bft) 93,62 %
29.10.2018 07:04 4,8 C 4,4 C 4,4 C 89 % 1006,2 hPa 0,0 l/m 0 min 0 min 0 W/m 9,7 km/h (2 Bft) 95,74 %
29.10.2018 07:08 4,8 C 4,4 C 4,4 C 89 % 1006,2 hPa 0,0 l/m 0 min 0 min 0 W/m 12,9 km/h (3 Bft) 96,81 %
29.10.2018 07:10 4,8 C 4,4 C 4,4 C 89 % 1006,2 hPa 0,0 l/m 0 min 0 min 0 W/m 16,1 km/h (3 Bft) 95,65 %
29.10.2018 07:12 4,8 C 4,4 C 4,4 C 89 % 1006,1 hPa 0,0 l/m 0 min 0 min 0 W/m 12,9 km/h (3 Bft) 97,87 %
29.10.2018 07:14 4,8 C 4,4 C 4,4 C 89 % 1006,1 hPa 0,0 l/m 0 min 0 min 0 W/m 12,9 km/h (3 Bft) 97,87 %
29.10.2018 07:16 4,8 C 4,4 C 4,4 C 89 % 1006,0 hPa 0,0 l/m 0 min 0 min 0 W/m 16,1 km/h (3 Bft) 95,74 %
29.10.2018 07:18 4,8 C 4,4 C 3,9 C 89 % 1006,0 hPa 0,0 l/m 0 min 0 min 0 W/m 12,9 km/h (3 Bft) 97,87 %
29.10.2018 07:20 4,8 C 4,4 C 3,9 C 89 % 1006,0 hPa 0,0 l/m 0 min 0 min 0 W/m 12,9 km/h (3 Bft) 95,74 %
29.10.2018 07:22 4,8 C 4,4 C 3,9 C 89 % 1005,9 hPa 0,0 l/m 0 min 0 min 0 W/m 25,7 km/h (4 Bft) 97,83 %
29.10.2018 07:24 4,8 C 4,4 C 4,4 C 89 % 1005,9 hPa 0,0 l/m 0 min 0 min 0 W/m 16,1 km/h (3 Bft) 97,87 %
29.10.2018 07:26 4,8 C 4,4 C 4,4 C 89 % 1005,9 hPa 0,0 l/m 0 min 0 min 0 W/m 9,7 km/h (2 Bft) 97,87 %
29.10.2018 07:28 4,8 C 4,4 C 4,4 C 89 % 1005,7 hPa 0,0 l/m 0 min 0 min 0 W/m 19,3 km/h (3 Bft) 97,87 %
29.10.2018 07:30 4,8 C 4,4 C 4,4 C 89 % 1005,7 hPa 0,0 l/m 0 min 0 min 0 W/m 16,1 km/h (3 Bft) 95,74 %
29.10.2018 07:32 4,8 C 4,4 C 4,4 C 89 % 1005,7 hPa 0,0 l/m 0 min 0 min 0 W/m 19,3 km/h (3 Bft) 97,83 %
29.10.2018 07:34 4,8 C 4,4 C 3,9 C 89 % 1005,7 hPa 0,0 l/m 0 min 0 min 0 W/m 9,7 km/h (2 Bft) 91,49 %
29.10.2018 07:38 4,8 C 4,4 C 3,9 C 89 % 1005,7 hPa 0,0 l/m 0 min 0 min 3 W/m 12,9 km/h (3 Bft) 97,87 %
29.10.2018 07:40 4,8 C 4,4 C 4,4 C 89 % 1005,7 hPa 0,0 l/m 0 min 0 min 5 W/m 16,1 km/h (3 Bft) 95,74 %
29.10.2018 07:42 4,8 C 4,4 C 3,9 C 89 % 1005,7 hPa 0,0 l/m 0 min 0 min 5 W/m 12,9 km/h (3 Bft) 97,87 %
29.10.2018 07:44 4,8 C 4,4 C 4,4 C 89 % 1005,6 hPa 0,0 l/m 0 min 0 min 5 W/m 12,9 km/h (3 Bft) 100,00 %
29.10.2018 07:46 4,8 C 4,4 C 4,4 C 89 % 1005,5 hPa 0,0 l/m 0 min 0 min 6 W/m 16,1 km/h (3 Bft) 100,00 %
29.10.2018 07:48 4,8 C 4,4 C 4,4 C 89 % 1005,5 hPa 0,0 l/m 0 min 0 min 7 W/m 9,7 km/h (2 Bft) 97,87 %
29.10.2018 07:50 4,8 C 4,4 C 4,4 C 89 % 1005,5 hPa 0,0 l/m 0 min 0 min 9 W/m 12,9 km/h (3 Bft) 100,00 %
29.10.2018 07:52 4,8 C 4,4 C 4,4 C 89 % 1005,4 hPa 0,0 l/m 0 min 0 min 11 W/m 12,9 km/h (3 Bft) 97,87 %
29.10.2018 07:54 4,8 C 4,4 C 3,9 C 89 % 1005,5 hPa 0,0 l/m 0 min 0 min 12 W/m 9,7 km/h (2 Bft) 100,00 %
29.10.2018 07:56 4,8 C 4,4 C 4,4 C 89 % 1005,4 hPa 0,0 l/m 0 min 0 min 12 W/m 16,1 km/h (3 Bft) 97,83 %
29.10.2018 07:58 4,8 C 4,4 C 4,4 C 89 % 1005,4 hPa 0,0 l/m 0 min 0 min 13 W/m 19,3 km/h (3 Bft) 97,87 %
29.10.2018 08:00 4,8 C 4,4 C 4,4 C 89 % 1005,4 hPa 0,0 l/m 0 min 0 min 15 W/m 12,9 km/h (3 Bft) 100,00 %
29.10.2018 08:02 4,8 C 4,4 C 4,4 C 89 % 1005,4 hPa 0,0 l/m 0 min 0 min 16 W/m 19,3 km/h (3 Bft) 100,00 %
29.10.2018 08:04 4,8 C 4,4 C 4,4 C 89 % 1005,4 hPa 0,0 l/m 0 min 0 min 16 W/m 22,5 km/h (4 Bft) 97,87 %
29.10.2018 08:08 4,8 C 4,4 C 4,4 C 89 % 1005,4 hPa 0,0 l/m 0 min 0 min 15 W/m 22,5 km/h (4 Bft) 96,77 %
29.10.2018 08:10 4,8 C 4,4 C 4,4 C 89 % 1005,5 hPa 0,0 l/m 0 min 0 min 14 W/m 9,7 km/h (2 Bft) 100,00 %
29.10.2018 08:12 4,8 C 4,4 C 4,4 C 89 % 1005,5 hPa 0,0 l/m 0 min 0 min 14 W/m 9,7 km/h (2 Bft) 100,00 %
29.10.2018 08:14 4,9 C 4,4 C 4,4 C 89 % 1005,4 hPa 0,0 l/m 0 min 0 min 15 W/m 16,1 km/h (3 Bft) 98,00 %
29.10.2018 08:16 4,9 C 4,4 C 4,4 C 89 % 1005,4 hPa 0,0 l/m 0 min 0 min 17 W/m 25,7 km/h (4 Bft) 97,87 %
29.10.2018 08:18 4,9 C 4,4 C 4,4 C 89 % 1005,3 hPa 0,0 l/m 0 min 0 min 20 W/m 12,9 km/h (3 Bft) 97,87 %
29.10.2018 08:20 4,9 C 4,4 C 4,4 C 89 % 1005,3 hPa 0,0 l/m 0 min 0 min 21 W/m 22,5 km/h (4 Bft) 100,00 %
29.10.2018 08:22 4,9 C 4,4 C 4,4 C 89 % 1005,3 hPa 0,0 l/m 0 min 0 min 21 W/m 12,9 km/h (3 Bft) 97,87 %
29.10.2018 08:24 4,9 C 4,4 C 4,4 C 89 % 1005,4 hPa 0,0 l/m 0 min 0 min 23 W/m 9,7 km/h (2 Bft) 97,87 %
29.10.2018 08:26 4,9 C 4,4 C 4,4 C 89 % 1005,4 hPa 0,0 l/m 0 min 0 min 24 W/m 19,3 km/h (3 Bft) 97,87 %
29.10.2018 08:28 4,9 C 4,4 C 4,4 C 89 % 1005,4 hPa 0,0 l/m 0 min 0 min 23 W/m 12,9 km/h (3 Bft) 97,87 %
29.10.2018 08:30 4,9 C 4,4 C 4,4 C 89 % 1005,4 hPa 0,0 l/m 0 min 0 min 23 W/m 16,1 km/h (3 Bft) 97,83 %
29.10.2018 08:32 4,9 C 4,4 C 4,4 C 89 % 1005,3 hPa 0,0 l/m 0 min 0 min 22 W/m 16,1 km/h (3 Bft) 97,87 %
29.10.2018 08:34 4,9 C 4,4 C 4,4 C 89 % 1005,3 hPa 0,0 l/m 0 min 0 min 22 W/m 12,9 km/h (3 Bft) 97,87 %
29.10.2018 08:38 4,9 C 4,4 C 4,4 C 89 % 1005,2 hPa 0,0 l/m 0 min 0 min 23 W/m 9,7 km/h (2 Bft) 96,81 %
29.10.2018 08:40 4,9 C 5,0 C 4,4 C 89 % 1005,2 hPa 0,0 l/m 0 min 0 min 25 W/m 12,9 km/h (3 Bft) 97,87 %
29.10.2018 08:42 4,9 C 5,0 C 4,4 C 89 % 1005,2 hPa 0,0 l/m 0 min 0 min 28 W/m 16,1 km/h (3 Bft) 97,83 %
29.10.2018 08:44 4,9 C 5,0 C 4,4 C 89 % 1005,2 hPa 0,0 l/m 0 min 0 min 29 W/m 12,9 km/h (3 Bft) 97,87 %
29.10.2018 08:46 4,9 C 5,0 C 4,4 C 89 % 1005,1 hPa 0,0 l/m 0 min 0 min 31 W/m 9,7 km/h (2 Bft) 97,87 %
29.10.2018 08:48 5,0 C 5,0 C 4,4 C 89 % 1005,2 hPa 0,0 l/m 0 min 0 min 29 W/m 19,3 km/h (3 Bft) 95,74 %
29.10.2018 08:50 5,0 C 5,0 C 4,4 C 89 % 1005,0 hPa 0,0 l/m 0 min 0 min 31 W/m 12,9 km/h (3 Bft) 95,74 %
29.10.2018 08:52 5,0 C 5,0 C 4,4 C 89 % 1004,9 hPa 0,0 l/m 0 min 0 min 38 W/m 16,1 km/h (3 Bft) 97,87 %
29.10.2018 08:54 5,0 C 5,0 C 4,4 C 89 % 1004,9 hPa 0,0 l/m 0 min 0 min 38 W/m 12,9 km/h (3 Bft) 97,83 %
29.10.2018 08:56 5,1 C 5,0 C 4,4 C 89 % 1004,8 hPa 0,0 l/m 0 min 0 min 33 W/m 12,9 km/h (3 Bft) 97,87 %
29.10.2018 08:58 5,1 C 5,0 C 4,4 C 89 % 1004,8 hPa 0,0 l/m 0 min 0 min 34 W/m 12,9 km/h (3 Bft) 93,62 %
29.10.2018 09:00 5,1 C 5,0 C 4,4 C 89 % 1004,8 hPa 0,0 l/m 0 min 0 min 43 W/m 16,1 km/h (3 Bft) 97,87 %
29.10.2018 09:02 5,1 C 5,0 C 4,4 C 89 % 1004,8 hPa 0,0 l/m 0 min 0 min 51 W/m 16,1 km/h (3 Bft) 97,87 %
29.10.2018 09:04 5,1 C 5,0 C 4,4 C 90 % 1004,8 hPa 0,0 l/m 0 min 0 min 55 W/m 9,7 km/h (2 Bft) 100,00 %
29.10.2018 09:08 5,1 C 5,0 C 4,4 C 90 % 1004,8 hPa 0,0 l/m 0 min 0 min 53 W/m 12,9 km/h (3 Bft) 100,00 %
29.10.2018 09:10 5,1 C 5,0 C 4,4 C 90 % 1004,8 hPa 0,0 l/m 0 min 0 min 57 W/m 22,5 km/h (4 Bft) 100,00 %
29.10.2018 09:12 5,2 C 5,0 C 4,4 C 89 % 1004,7 hPa 0,0 l/m 0 min 0 min 63 W/m 9,7 km/h (2 Bft) 100,00 %
29.10.2018 09:14 5,2 C 5,6 C 5,0 C 89 % 1004,6 hPa 0,0 l/m 0 min 0 min 70 W/m 12,9 km/h (3 Bft) 100,00 %
29.10.2018 09:16 5,2 C 5,6 C 5,0 C 89 % 1004,7 hPa 0,0 l/m 0 min 0 min 84 W/m 12,9 km/h (3 Bft) 95,74 %
29.10.2018 09:18 5,2 C 5,6 C 5,0 C 89 % 1004,6 hPa 0,0 l/m 0 min 0 min 93 W/m 9,7 km/h (2 Bft) 100,00 %
29.10.2018 09:20 5,3 C 5,6 C 5,0 C 89 % 1004,6 hPa 0,0 l/m 0 min 0 min 89 W/m 12,9 km/h (3 Bft) 100,00 %
29.10.2018 09:22 5,3 C 5,6 C 5,0 C 89 % 1004,5 hPa 0,0 l/m 0 min 0 min 83 W/m 9,7 km/h (2 Bft) 100,00 %
29.10.2018 09:24 5,3 C 5,6 C 5,0 C 89 % 1004,5 hPa 0,0 l/m 0 min 0 min 78 W/m 12,9 km/h (3 Bft) 100,00 %
29.10.2018 09:26 5,3 C 5,6 C 5,0 C 89 % 1004,4 hPa 0,0 l/m 0 min 0 min 81 W/m 12,9 km/h (3 Bft) 100,00 %
29.10.2018 09:28 5,3 C 5,6 C 5,0 C 89 % 1004,4 hPa 0,0 l/m 0 min 0 min 77 W/m 9,7 km/h (2 Bft) 100,00 %
29.10.2018 09:30 5,4 C 5,6 C 5,0 C 89 % 1004,3 hPa 0,0 l/m 0 min 0 min 79 W/m 12,9 km/h (3 Bft) 100,00 %
29.10.2018 09:32 5,4 C 5,6 C 5,0 C 89 % 1004,4 hPa 0,0 l/m 0 min 0 min 75 W/m 12,9 km/h (3 Bft) 100,00 %
29.10.2018 09:34 5,4 C 5,6 C 5,0 C 89 % 1004,4 hPa 0,0 l/m 0 min 0 min 78 W/m 9,7 km/h (2 Bft) 100,00 %
29.10.2018 09:38 5,5 C 5,6 C 5,0 C 89 % 1004,3 hPa 0,0 l/m 0 min 0 min 83 W/m 16,1 km/h (3 Bft) 98,94 %
29.10.2018 09:40 5,5 C 5,6 C 5,0 C 89 % 1004,2 hPa 0,0 l/m 0 min 0 min 84 W/m 16,1 km/h (3 Bft) 100,00 %
29.10.2018 09:42 5,5 C 5,6 C 5,0 C 89 % 1004,2 hPa 0,0 l/m 0 min 0 min 86 W/m 19,3 km/h (3 Bft) 95,65 %
29.10.2018 09:44 5,6 C 5,6 C 5,0 C 89 % 1004,2 hPa 0,0 l/m 0 min 0 min 86 W/m 12,9 km/h (3 Bft) 95,74 %
29.10.2018 09:46 5,6 C 5,6 C 5,0 C 89 % 1004,1 hPa 0,0 l/m 0 min 0 min 91 W/m 12,9 km/h (3 Bft) 95,24 %
29.10.2018 09:48 5,6 C 5,6 C 5,0 C 89 % 1004,1 hPa 0,0 l/m 0 min 0 min 85 W/m 12,9 km/h (3 Bft) 95,65 %
29.10.2018 09:50 5,6 C 5,6 C 5,0 C 89 % 1004,0 hPa 0,0 l/m 0 min 0 min 67 W/m 12,9 km/h (3 Bft) 95,74 %
29.10.2018 09:52 5,6 C 5,6 C 5,0 C 89 % 1004,0 hPa 0,0 l/m 0 min 0 min 51 W/m 12,9 km/h (3 Bft) 89,36 %
29.10.2018 09:54 5,7 C 5,6 C 5,0 C 89 % 1004,0 hPa 0,0 l/m 0 min 0 min 54 W/m 9,7 km/h (2 Bft) 93,62 %
29.10.2018 09:56 5,7 C 5,6 C 5,0 C 88 % 1003,9 hPa 0,0 l/m 0 min 0 min 58 W/m 12,9 km/h (3 Bft) 95,74 %
29.10.2018 09:58 5,7 C 5,6 C 5,0 C 88 % 1003,8 hPa 0,0 l/m 0 min 0 min 62 W/m 9,7 km/h (2 Bft) 95,74 %
29.10.2018 10:00 5,7 C 5,6 C 5,0 C 88 % 1003,7 hPa 0,0 l/m 0 min 0 min 58 W/m 9,7 km/h (2 Bft) 93,48 %
29.10.2018 10:02 5,7 C 5,6 C 5,0 C 88 % 1003,7 hPa 0,0 l/m 0 min 0 min 61 W/m 12,9 km/h (3 Bft) 95,74 %
29.10.2018 10:04 5,7 C 5,6 C 5,0 C 88 % 1003,6 hPa 0,0 l/m 0 min 0 min 56 W/m 12,9 km/h (3 Bft) 93,62 %
29.10.2018 10:08 5,7 C 5,6 C 5,0 C 88 % 1003,5 hPa 0,0 l/m 0 min 0 min 62 W/m 12,9 km/h (3 Bft) 96,81 %
29.10.2018 10:10 5,7 C 5,6 C 5,0 C 88 % 1003,4 hPa 0,0 l/m 0 min 0 min 56 W/m 9,7 km/h (2 Bft) 95,74 %
29.10.2018 10:12 5,8 C 5,6 C 5,0 C 88 % 1003,3 hPa 0,0 l/m 0 min 0 min 74 W/m 9,7 km/h (2 Bft) 91,30 %
29.10.2018 10:14 5,8 C 5,6 C 5,0 C 88 % 1003,3 hPa 0,0 l/m 0 min 0 min 83 W/m 9,7 km/h (2 Bft) 94,00 %
29.10.2018 10:16 5,8 C 5,6 C 5,0 C 88 % 1003,3 hPa 0,0 l/m 0 min 0 min 76 W/m 9,7 km/h (2 Bft) 93,62 %
29.10.2018 10:18 5,8 C 6,1 C 5,0 C 88 % 1003,2 hPa 0,0 l/m 0 min 0 min 78 W/m 9,7 km/h (2 Bft) 93,62 %
29.10.2018 10:20 5,8 C 6,1 C 5,6 C 88 % 1003,3 hPa 0,0 l/m 0 min 0 min 79 W/m 9,7 km/h (2 Bft) 96,49 %
29.10.2018 10:26 5,9 C 5,6 C 5,6 C 88 % 1003,3 hPa 0,0 l/m 0 min 0 min 48 W/m 12,9 km/h (3 Bft) 97,40 %
29.10.2018 10:28 5,9 C 5,6 C 5,0 C 88 % 1003,3 hPa 0,0 l/m 0 min 0 min 43 W/m 6,4 km/h (2 Bft) 95,74 %
29.10.2018 10:32 5,9 C 5,6 C 5,0 C 88 % 1003,3 hPa 0,0 l/m 0 min 0 min 70 W/m 12,9 km/h (3 Bft) 97,56 %
29.10.2018 10:34 5,9 C 6,1 C 5,0 C 88 % 1003,3 hPa 0,0 l/m 0 min 0 min 74 W/m 9,7 km/h (2 Bft) 97,87 %
29.10.2018 10:38 5,9 C 5,6 C 5,0 C 87 % 1003,2 hPa 0,0 l/m 0 min 0 min 51 W/m 16,1 km/h (3 Bft) 94,68 %
29.10.2018 10:40 5,9 C 5,6 C 5,0 C 87 % 1003,1 hPa 0,0 l/m 0 min 0 min 52 W/m 6,4 km/h (2 Bft) 95,74 %
29.10.2018 10:42 5,9 C 5,6 C 5,0 C 87 % 1003,1 hPa 0,0 l/m 0 min 0 min 62 W/m 9,7 km/h (2 Bft) 95,74 %
29.10.2018 10:44 5,9 C 5,6 C 5,0 C 87 % 1003,0 hPa 0,0 l/m 0 min 0 min 64 W/m 9,7 km/h (2 Bft) 97,87 %
29.10.2018 10:46 5,9 C 6,1 C 5,0 C 87 % 1002,9 hPa 0,0 l/m 0 min 0 min 63 W/m 9,7 km/h (2 Bft) 100,00 %
29.10.2018 10:48 5,9 C 5,6 C 5,0 C 87 % 1002,8 hPa 0,0 l/m 0 min 0 min 62 W/m 9,7 km/h (2 Bft) 100,00 %
29.10.2018 10:50 5,9 C 5,6 C 5,0 C 87 % 1002,7 hPa 0,0 l/m 0 min 0 min 61 W/m 16,1 km/h (3 Bft) 97,87 %
29.10.2018 10:52 5,9 C 5,6 C 5,0 C 87 % 1002,6 hPa 0,0 l/m 0 min 0 min 69 W/m 9,7 km/h (2 Bft) 97,92 %
29.10.2018 10:54 5,9 C 6,1 C 5,0 C 87 % 1002,5 hPa 0,0 l/m 0 min 0 min 80 W/m 16,1 km/h (3 Bft) 97,87 %
29.10.2018 10:56 5,9 C 6,1 C 5,0 C 87 % 1002,4 hPa 0,0 l/m 0 min 0 min 84 W/m 9,7 km/h (2 Bft) 100,00 %
29.10.2018 10:58 6,0 C 6,1 C 5,6 C 87 % 1002,3 hPa 0,0 l/m 0 min 0 min 102 W/m 9,7 km/h (2 Bft) 97,83 %
29.10.2018 11:00 6,0 C 6,1 C 5,6 C 87 % 1002,3 hPa 0,0 l/m 0 min 0 min 127 W/m 16,1 km/h (3 Bft) 97,87 %
29.10.2018 11:02 6,0 C 6,1 C 5,6 C 87 % 1002,3 hPa 0,0 l/m 0 min 0 min 136 W/m 22,5 km/h (4 Bft) 93,62 %
29.10.2018 11:04 6,0 C 6,1 C 5,6 C 87 % 1002,3 hPa 0,0 l/m 0 min 0 min 141 W/m 12,9 km/h (3 Bft) 95,74 %
29.10.2018 11:08 6,1 C 6,1 C 5,6 C 87 % 1002,4 hPa 0,0 l/m 0 min 0 min 126 W/m 16,1 km/h (3 Bft) 97,87 %
29.10.2018 11:10 6,1 C 6,1 C 5,6 C 87 % 1002,3 hPa 0,0 l/m 0 min 0 min 115 W/m 16,1 km/h (3 Bft) 97,83 %
29.10.2018 11:12 6,1 C 6,1 C 5,6 C 87 % 1002,3 hPa 0,0 l/m 0 min 0 min 114 W/m 12,9 km/h (3 Bft) 97,87 %
29.10.2018 11:14 6,2 C 6,7 C 5,6 C 87 % 1002,2 hPa 0,0 l/m 0 min 0 min 119 W/m 12,9 km/h (3 Bft) 97,87 %
29.10.2018 11:16 6,2 C 6,7 C 5,6 C 86 % 1002,1 hPa 0,0 l/m 0 min 0 min 122 W/m 25,7 km/h (4 Bft) 97,87 %
29.10.2018 11:18 6,2 C 6,7 C 5,6 C 86 % 1002,1 hPa 0,0 l/m 0 min 0 min 124 W/m 12,9 km/h (3 Bft) 97,87 %
29.10.2018 11:20 6,2 C 6,7 C 5,6 C 86 % 1002,1 hPa 0,0 l/m 0 min 0 min 134 W/m 19,3 km/h (3 Bft) 95,74 %
29.10.2018 11:22 6,2 C 6,7 C 5,6 C 86 % 1002,2 hPa 0,0 l/m 0 min 0 min 140 W/m 16,1 km/h (3 Bft) 97,83 %
29.10.2018 11:24 6,3 C 6,7 C 5,6 C 86 % 1002,2 hPa 0,0 l/m 0 min 0 min 114 W/m 16,1 km/h (3 Bft) 98,00 %
29.10.2018 11:26 6,3 C 6,1 C 5,6 C 86 % 1002,2 hPa 0,0 l/m 0 min 0 min 96 W/m 9,7 km/h (2 Bft) 93,62 %
29.10.2018 11:28 6,3 C 6,1 C 5,6 C 86 % 1002,2 hPa 0,0 l/m 0 min 0 min 81 W/m 16,1 km/h (3 Bft) 95,74 %
29.10.2018 11:30 6,3 C 6,1 C 5,6 C 86 % 1002,2 hPa 0,0 l/m 0 min 0 min 72 W/m 9,7 km/h (2 Bft) 97,14 %
29.10.2018 11:32 6,3 C 6,1 C 5,6 C 86 % 1002,2 hPa 0,0 l/m 0 min 0 min 69 W/m 6,4 km/h (2 Bft) 95,74 %
29.10.2018 11:34 6,3 C 6,1 C 5,6 C 86 % 1002,1 hPa 0,0 l/m 0 min 0 min 67 W/m 19,3 km/h (3 Bft) 97,87 %
29.10.2018 11:38 6,3 C 6,1 C 5,6 C 85 % 1002,1 hPa 0,0 l/m 0 min 0 min 88 W/m 12,9 km/h (3 Bft) 97,87 %
29.10.2018 11:40 6,3 C 6,1 C 5,6 C 85 % 1002,2 hPa 0,0 l/m 0 min 0 min 100 W/m 9,7 km/h (2 Bft) 95,65 %
29.10.2018 11:42 6,4 C 6,1 C 5,6 C 85 % 1002,1 hPa 0,0 l/m 0 min 0 min 92 W/m 12,9 km/h (3 Bft) 97,87 %
29.10.2018 11:44 6,4 C 6,1 C 5,6 C 85 % 1002,2 hPa 0,0 l/m 0 min 0 min 85 W/m 12,9 km/h (3 Bft) 97,87 %
29.10.2018 11:46 6,4 C 6,1 C 5,6 C 85 % 1002,2 hPa 0,0 l/m 0 min 0 min 87 W/m 22,5 km/h (4 Bft) 100,00 %
29.10.2018 11:48 6,4 C 6,1 C 5,6 C 85 % 1002,2 hPa 0,0 l/m 0 min 0 min 81 W/m 16,1 km/h (3 Bft) 97,87 %
29.10.2018 11:50 6,4 C 6,1 C 5,6 C 85 % 1002,1 hPa 0,0 l/m 0 min 0 min 77 W/m 22,5 km/h (4 Bft) 100,00 %
29.10.2018 11:52 6,4 C 6,1 C 5,6 C 85 % 1002,1 hPa 0,0 l/m 0 min 0 min 74 W/m 12,9 km/h (3 Bft) 100,00 %
29.10.2018 11:54 6,4 C 6,1 C 5,6 C 85 % 1002,0 hPa 0,0 l/m 0 min 0 min 71 W/m 9,7 km/h (2 Bft) 97,87 %
29.10.2018 11:56 6,4 C 6,1 C 5,6 C 85 % 1002,0 hPa 0,0 l/m 0 min 0 min 65 W/m 16,1 km/h (3 Bft) 100,00 %
29.10.2018 11:58 6,4 C 6,1 C 5,6 C 85 % 1002,1 hPa 0,0 l/m 0 min 0 min 62 W/m 9,7 km/h (2 Bft) 100,00 %
29.10.2018 12:00 6,4 C 6,1 C 5,6 C 85 % 1002,1 hPa 0,0 l/m 0 min 0 min 65 W/m 12,9 km/h (3 Bft) 100,00 %
29.10.2018 12:02 6,4 C 6,1 C 5,6 C 85 % 1002,0 hPa 0,0 l/m 0 min 0 min 62 W/m 19,3 km/h (3 Bft) 100,00 %
29.10.2018 12:04 6,4 C 6,1 C 5,6 C 85 % 1002,0 hPa 0,0 l/m 0 min 0 min 51 W/m 9,7 km/h (2 Bft) 100,00 %
29.10.2018 12:08 6,4 C 6,1 C 5,6 C 85 % 1002,0 hPa 0,0 l/m 0 min 0 min 38 W/m 12,9 km/h (3 Bft) 100,00 %
29.10.2018 12:10 6,4 C 6,1 C 5,6 C 85 % 1002,0 hPa 0,0 l/m 0 min 0 min 32 W/m 16,1 km/h (3 Bft) 100,00 %
29.10.2018 12:12 6,4 C 6,1 C 5,6 C 85 % 1002,0 hPa 0,0 l/m 0 min 0 min 28 W/m 19,3 km/h (3 Bft) 100,00 %
29.10.2018 12:14 6,4 C 6,1 C 5,6 C 85 % 1001,9 hPa 0,0 l/m 0 min 0 min 29 W/m 22,5 km/h (4 Bft) 100,00 %
29.10.2018 12:16 6,4 C 6,1 C 5,6 C 85 % 1001,9 hPa 0,0 l/m 0 min 0 min 32 W/m 12,9 km/h (3 Bft) 100,00 %
29.10.2018 12:18 6,4 C 6,1 C 5,6 C 85 % 1001,9 hPa 0,0 l/m 0 min 0 min 32 W/m 9,7 km/h (2 Bft) 100,00 %
29.10.2018 12:20 6,4 C 6,1 C 5,6 C 85 % 1002,0 hPa 0,0 l/m 0 min 0 min 34 W/m 12,9 km/h (3 Bft) 97,87 %
29.10.2018 12:22 6,4 C 6,1 C 5,6 C 85 % 1002,0 hPa 0,0 l/m 0 min 0 min 33 W/m 9,7 km/h (2 Bft) 97,87 %
29.10.2018 12:24 6,4 C 6,1 C 5,6 C 85 % 1001,9 hPa 0,0 l/m 0 min 0 min 33 W/m 19,3 km/h (3 Bft) 97,87 %
29.10.2018 12:26 6,4 C 6,1 C 5,6 C 85 % 1001,9 hPa 0,0 l/m 0 min 0 min 33 W/m 22,5 km/h (4 Bft) 97,83 %
29.10.2018 12:28 6,4 C 6,1 C 5,6 C 85 % 1001,9 hPa 0,0 l/m 0 min 0 min 36 W/m 16,1 km/h (3 Bft) 97,87 %
29.10.2018 12:30 6,4 C 6,1 C 5,6 C 85 % 1001,8 hPa 0,0 l/m 0 min 0 min 39 W/m 9,7 km/h (2 Bft) 95,74 %
29.10.2018 12:32 6,4 C 6,1 C 5,6 C 85 % 1001,7 hPa 0,0 l/m 0 min 0 min 38 W/m 9,7 km/h (2 Bft) 95,74 %
29.10.2018 12:34 6,4 C 6,1 C 5,6 C 85 % 1001,7 hPa 0,0 l/m 0 min 0 min 40 W/m 9,7 km/h (2 Bft) 97,87 %
29.10.2018 12:38 6,4 C 6,1 C 5,6 C 85 % 1001,6 hPa 0,0 l/m 0 min 0 min 42 W/m 9,7 km/h (2 Bft) 97,85 %
29.10.2018 12:40 6,4 C 6,1 C 5,6 C 85 % 1001,6 hPa 0,0 l/m 0 min 0 min 47 W/m 12,9 km/h (3 Bft) 97,87 %
29.10.2018 12:42 6,4 C 6,1 C 5,6 C 85 % 1001,6 hPa 0,0 l/m 0 min 0 min 43 W/m 16,1 km/h (3 Bft) 97,87 %
29.10.2018 12:44 6,4 C 6,1 C 5,6 C 85 % 1001,6 hPa 0,0 l/m 0 min 0 min 39 W/m 9,7 km/h (2 Bft) 97,87 %
29.10.2018 12:46 6,4 C 6,1 C 5,6 C 85 % 1001,7 hPa 0,0 l/m 0 min 0 min 35 W/m 9,7 km/h (2 Bft) 97,87 %
29.10.2018 12:48 6,4 C 6,1 C 5,6 C 85 % 1001,7 hPa 0,0 l/m 0 min 0 min 36 W/m 9,7 km/h (2 Bft) 95,74 %
29.10.2018 12:50 6,3 C 6,1 C 5,6 C 85 % 1001,7 hPa 0,0 l/m 0 min 0 min 35 W/m 9,7 km/h (2 Bft) 97,83 %
29.10.2018 12:52 6,4 C 6,1 C 5,6 C 85 % 1001,6 hPa 0,0 l/m 0 min 0 min 37 W/m 6,4 km/h (2 Bft) 97,87 %
29.10.2018 12:54 6,4 C 6,1 C 5,6 C 85 % 1001,6 hPa 0,0 l/m 0 min 0 min 47 W/m 9,7 km/h (2 Bft) 98,18 %
29.10.2018 12:56 6,4 C 6,1 C 5,6 C 85 % 1001,6 hPa 0,0 l/m 0 min 0 min 53 W/m 9,7 km/h (2 Bft) 97,87 %
29.10.2018 12:58 6,4 C 6,1 C 5,6 C 85 % 1001,6 hPa 0,0 l/m 0 min 0 min 53 W/m 16,1 km/h (3 Bft) 97,87 %
29.10.2018 13:00 6,4 C 6,1 C 5,6 C 85 % 1001,6 hPa 0,0 l/m 0 min 0 min 53 W/m 9,7 km/h (2 Bft) 97,87 %
29.10.2018 13:02 6,4 C 6,1 C 5,6 C 85 % 1001,5 hPa 0,0 l/m 0 min 0 min 53 W/m 6,4 km/h (2 Bft) 95,74 %
29.10.2018 13:04 6,4 C 6,1 C 5,6 C 85 % 1001,6 hPa 0,0 l/m 0 min 0 min 57 W/m 9,7 km/h (2 Bft) 100,00 %
29.10.2018 13:08 6,4 C 6,1 C 5,6 C 85 % 1001,5 hPa 0,0 l/m 0 min 0 min 58 W/m 9,7 km/h (2 Bft) 100,00 %
29.10.2018 13:10 6,4 C 6,1 C 5,6 C 85 % 1001,4 hPa 0,0 l/m 0 min 0 min 58 W/m 6,4 km/h (2 Bft) 97,87 %
29.10.2018 13:12 6,4 C 6,1 C 5,6 C 85 % 1001,3 hPa 0,0 l/m 0 min 0 min 65 W/m 6,4 km/h (2 Bft) 97,87 %
29.10.2018 13:14 6,4 C 6,1 C 5,6 C 86 % 1001,3 hPa 0,0 l/m 0 min 0 min 70 W/m 6,4 km/h (2 Bft) 97,87 %
29.10.2018 13:16 6,4 C 6,1 C 5,6 C 86 % 1001,3 hPa 0,0 l/m 0 min 0 min 70 W/m 6,4 km/h (2 Bft) 97,87 %
29.10.2018 13:18 6,4 C 6,7 C 5,6 C 86 % 1001,2 hPa 0,0 l/m 0 min 0 min 72 W/m 9,7 km/h (2 Bft) 97,83 %
29.10.2018 13:20 6,4 C 6,1 C 5,6 C 85 % 1001,2 hPa 0,0 l/m 0 min 0 min 60 W/m 12,9 km/h (3 Bft) 95,74 %
29.10.2018 13:22 6,4 C 6,1 C 5,6 C 85 % 1001,2 hPa 0,0 l/m 0 min 0 min 46 W/m 9,7 km/h (2 Bft) 92,00 %
29.10.2018 13:24 6,4 C 6,1 C 5,6 C 85 % 1001,2 hPa 0,0 l/m 0 min 0 min 40 W/m 12,9 km/h (3 Bft) 97,87 %
29.10.2018 13:26 6,4 C 6,1 C 5,6 C 85 % 1001,1 hPa 0,0 l/m 0 min 0 min 34 W/m 9,7 km/h (2 Bft) 97,87 %
29.10.2018 13:28 6,4 C 6,1 C 5,6 C 85 % 1001,0 hPa 0,0 l/m 0 min 0 min 33 W/m 12,9 km/h (3 Bft) 91,49 %
29.10.2018 13:30 6,4 C 6,1 C 5,6 C 85 % 1001,0 hPa 0,0 l/m 0 min 0 min 33 W/m 12,9 km/h (3 Bft) 97,83 %
29.10.2018 13:32 6,4 C 6,1 C 5,6 C 85 % 1000,9 hPa 0,0 l/m 0 min 0 min 34 W/m 6,4 km/h (2 Bft) 95,74 %
29.10.2018 13:34 6,4 C 6,1 C 5,6 C 85 % 1000,9 hPa 0,0 l/m 0 min 0 min 37 W/m 9,7 km/h (2 Bft) 97,22 %
29.10.2018 13:38 6,4 C 6,1 C 5,6 C 85 % 1000,9 hPa 0,0 l/m 0 min 0 min 43 W/m 19,3 km/h (3 Bft) 96,77 %
29.10.2018 13:40 6,4 C 6,1 C 5,6 C 85 % 1000,9 hPa 0,0 l/m 0 min 0 min 48 W/m 16,1 km/h (3 Bft) 97,87 %
29.10.2018 13:42 6,4 C 6,1 C 5,6 C 85 % 1000,8 hPa 0,0 l/m 0 min 0 min 52 W/m 9,7 km/h (2 Bft) 95,74 %
29.10.2018 13:44 6,4 C 6,1 C 5,6 C 85 % 1000,8 hPa 0,0 l/m 0 min 0 min 53 W/m 12,9 km/h (3 Bft) 95,74 %
29.10.2018 13:46 6,4 C 6,1 C 5,6 C 85 % 1000,8 hPa 0,0 l/m 0 min 0 min 54 W/m 12,9 km/h (3 Bft) 95,74 %
29.10.2018 13:48 6,4 C 6,1 C 5,6 C 85 % 1000,8 hPa 0,0 l/m 0 min 0 min 58 W/m 9,7 km/h (2 Bft) 95,65 %
29.10.2018 13:50 6,4 C 6,1 C 5,6 C 85 % 1000,6 hPa 0,0 l/m 0 min 0 min 65 W/m 16,1 km/h (3 Bft) 93,62 %
29.10.2018 13:52 6,4 C 6,1 C 5,6 C 85 % 1000,6 hPa 0,0 l/m 0 min 0 min 76 W/m 12,9 km/h (3 Bft) 95,74 %
29.10.2018 13:54 6,4 C 6,1 C 5,6 C 85 % 1000,4 hPa 0,0 l/m 0 min 0 min 89 W/m 12,9 km/h (3 Bft) 93,62 %
29.10.2018 13:56 6,4 C 6,1 C 5,6 C 85 % 1000,4 hPa 0,0 l/m 0 min 0 min 89 W/m 12,9 km/h (3 Bft) 95,74 %
29.10.2018 13:58 6,4 C 6,1 C 5,6 C 85 % 1000,3 hPa 0,0 l/m 0 min 0 min 80 W/m 12,9 km/h (3 Bft) 95,74 %
29.10.2018 14:00 6,4 C 6,1 C 5,6 C 84 % 1000,3 hPa 0,0 l/m 0 min 0 min 81 W/m 9,7 km/h (2 Bft) 94,44 %
29.10.2018 14:02 6,4 C 6,1 C 5,6 C 84 % 1000,2 hPa 0,0 l/m 0 min 0 min 95 W/m 16,1 km/h (3 Bft) 95,74 %
29.10.2018 14:04 6,4 C 6,7 C 5,6 C 84 % 1000,3 hPa 0,0 l/m 0 min 0 min 87 W/m 12,9 km/h (3 Bft) 97,96 %
29.10.2018 14:08 6,5 C 6,1 C 5,6 C 84 % 1000,3 hPa 0,0 l/m 0 min 0 min 60 W/m 12,9 km/h (3 Bft) 95,74 %
29.10.2018 14:10 6,4 C 6,1 C 5,6 C 84 % 1000,4 hPa 0,0 l/m 0 min 0 min 45 W/m 19,3 km/h (3 Bft) 95,74 %
29.10.2018 14:12 6,5 C 6,1 C 5,6 C 84 % 1000,3 hPa 0,0 l/m 0 min 0 min 47 W/m 9,7 km/h (2 Bft) 97,87 %
29.10.2018 14:14 6,5 C 6,1 C 5,6 C 84 % 1000,2 hPa 0,0 l/m 0 min 0 min 46 W/m 16,1 km/h (3 Bft) 97,87 %
29.10.2018 14:16 6,5 C 6,1 C 5,6 C 84 % 1000,2 hPa 0,0 l/m 0 min 0 min 43 W/m 6,4 km/h (2 Bft) 97,83 %
29.10.2018 14:18 6,5 C 6,1 C 5,6 C 84 % 1000,2 hPa 0,0 l/m 0 min 0 min 43 W/m 16,1 km/h (3 Bft) 93,62 %
29.10.2018 14:20 6,4 C 6,1 C 5,6 C 84 % 1000,1 hPa 0,0 l/m 0 min 0 min 45 W/m 9,7 km/h (2 Bft) 95,74 %
29.10.2018 14:22 6,5 C 6,1 C 5,6 C 84 % 1000,1 hPa 0,0 l/m 0 min 0 min 49 W/m 16,1 km/h (3 Bft) 95,74 %
29.10.2018 14:24 6,5 C 6,1 C 5,6 C 84 % 1000,1 hPa 0,0 l/m 0 min 0 min 58 W/m 12,9 km/h (3 Bft) 97,87 %
29.10.2018 14:26 6,4 C 6,1 C 5,6 C 84 % 1000,1 hPa 0,0 l/m 0 min 0 min 61 W/m 9,7 km/h (2 Bft) 95,74 %
29.10.2018 14:28 6,4 C 6,1 C 5,6 C 84 % 1000,1 hPa 0,0 l/m 0 min 0 min 62 W/m 12,9 km/h (3 Bft) 100,00 %
29.10.2018 14:30 6,4 C 6,1 C 5,6 C 84 % 1000,1 hPa 0,0 l/m 0 min 0 min 60 W/m 9,7 km/h (2 Bft) 100,00 %
29.10.2018 14:32 6,4 C 6,1 C 5,6 C 84 % 1000,1 hPa 0,0 l/m 0 min 0 min 51 W/m 12,9 km/h (3 Bft) 97,87 %
29.10.2018 14:34 6,4 C 6,1 C 5,6 C 84 % 1000,0 hPa 0,0 l/m 0 min 0 min 41 W/m 12,9 km/h (3 Bft) 100,00 %
29.10.2018 14:38 6,4 C 6,1 C 5,6 C 84 % 1000,0 hPa 0,0 l/m 0 min 0 min 33 W/m 12,9 km/h (3 Bft) 98,94 %
29.10.2018 14:40 6,4 C 6,1 C 5,6 C 84 % 999,9 hPa 0,0 l/m 0 min 0 min 32 W/m 9,7 km/h (2 Bft) 100,00 %
29.10.2018 14:42 6,4 C 6,1 C 5,6 C 84 % 999,9 hPa 0,0 l/m 0 min 0 min 35 W/m 9,7 km/h (2 Bft) 97,87 %
29.10.2018 14:44 6,4 C 6,1 C 5,6 C 84 % 999,8 hPa 0,0 l/m 0 min 0 min 46 W/m 6,4 km/h (2 Bft) 100,00 %
29.10.2018 14:46 6,4 C 6,1 C 5,6 C 84 % 999,8 hPa 0,0 l/m 0 min 0 min 70 W/m 6,4 km/h (2 Bft) 95,65 %
29.10.2018 14:48 6,4 C 6,1 C 5,6 C 84 % 999,8 hPa 0,0 l/m 0 min 0 min 82 W/m 22,5 km/h (4 Bft) 100,00 %
29.10.2018 14:50 6,4 C 6,1 C 5,6 C 84 % 999,8 hPa 0,0 l/m 0 min 0 min 63 W/m 16,1 km/h (3 Bft) 100,00 %
29.10.2018 14:52 6,4 C 6,1 C 5,6 C 84 % 999,8 hPa 0,0 l/m 0 min 0 min 45 W/m 22,5 km/h (4 Bft) 100,00 %
29.10.2018 14:54 6,4 C 6,1 C 5,6 C 84 % 999,8 hPa 0,0 l/m 0 min 0 min 35 W/m 12,9 km/h (3 Bft) 100,00 %
29.10.2018 14:56 6,4 C 6,1 C 5,6 C 84 % 999,7 hPa 0,0 l/m 0 min 0 min 29 W/m 12,9 km/h (3 Bft) 100,00 %
29.10.2018 14:58 6,4 C 6,1 C 5,6 C 83 % 999,7 hPa 0,0 l/m 0 min 0 min 28 W/m 12,9 km/h (3 Bft) 97,83 %
29.10.2018 15:00 6,4 C 6,1 C 5,6 C 83 % 999,6 hPa 0,0 l/m 0 min 0 min 30 W/m 12,9 km/h (3 Bft) 100,00 %
29.10.2018 15:02 6,4 C 6,1 C 5,6 C 83 % 999,5 hPa 0,0 l/m 0 min 0 min 30 W/m 12,9 km/h (3 Bft) 100,00 %
29.10.2018 15:04 6,4 C 6,1 C 5,6 C 83 % 999,5 hPa 0,0 l/m 0 min 0 min 28 W/m 22,5 km/h (4 Bft) 100,00 %
29.10.2018 15:08 6,4 C 6,1 C 5,6 C 83 % 999,4 hPa 0,0 l/m 0 min 0 min 34 W/m 16,1 km/h (3 Bft) 96,04 %
29.10.2018 15:10 6,4 C 6,1 C 5,6 C 83 % 999,3 hPa 0,0 l/m 0 min 0 min 33 W/m 16,1 km/h (3 Bft) 97,87 %
29.10.2018 15:12 6,4 C 6,1 C 5,6 C 83 % 999,3 hPa 0,0 l/m 0 min 0 min 31 W/m 12,9 km/h (3 Bft) 97,87 %
29.10.2018 15:14 6,4 C 5,6 C 5,6 C 83 % 999,0 hPa 0,0 l/m 0 min 0 min 28 W/m 16,1 km/h (3 Bft) 97,87 %
29.10.2018 15:16 6,3 C 5,6 C 5,6 C 83 % 999,0 hPa 0,0 l/m 0 min 0 min 29 W/m 29,0 km/h (5 Bft) 97,83 %
29.10.2018 15:18 6,3 C 5,6 C 5,6 C 83 % 998,9 hPa 0,0 l/m 0 min 0 min 30 W/m 16,1 km/h (3 Bft) 97,87 %
29.10.2018 15:20 6,3 C 5,6 C 5,6 C 83 % 999,0 hPa 0,0 l/m 0 min 0 min 29 W/m 16,1 km/h (3 Bft) 97,87 %
29.10.2018 15:22 6,3 C 5,6 C 5,6 C 83 % 999,0 hPa 0,0 l/m 0 min 0 min 27 W/m 9,7 km/h (2 Bft) 95,74 %
29.10.2018 15:24 6,3 C 5,6 C 5,6 C 83 % 999,0 hPa 0,0 l/m 0 min 0 min 28 W/m 9,7 km/h (2 Bft) 97,87 %
29.10.2018 15:26 6,3 C 5,6 C 5,6 C 83 % 999,0 hPa 0,0 l/m 0 min 0 min 27 W/m 12,9 km/h (3 Bft) 97,83 %
29.10.2018 15:28 6,3 C 5,6 C 5,6 C 84 % 998,7 hPa 0,0 l/m 0 min 0 min 29 W/m 12,9 km/h (3 Bft) 97,87 %
29.10.2018 15:30 6,3 C 5,6 C 5,6 C 84 % 998,7 hPa 0,0 l/m 0 min 0 min 29 W/m 6,4 km/h (2 Bft) 97,37 %
29.10.2018 15:32 6,3 C 5,6 C 5,6 C 84 % 998,6 hPa 0,0 l/m 0 min 0 min 28 W/m 25,7 km/h (4 Bft) 95,92 %
29.10.2018 15:34 6,3 C 5,6 C 5,6 C 84 % 998,5 hPa 0,0 l/m 0 min 0 min 28 W/m 12,9 km/h (3 Bft) 95,65 %
29.10.2018 15:38 6,3 C 5,6 C 5,6 C 84 % 998,4 hPa 0,0 l/m 0 min 0 min 28 W/m 19,3 km/h (3 Bft) 97,87 %
29.10.2018 15:40 6,3 C 5,6 C 5,6 C 84 % 998,3 hPa 0,0 l/m 0 min 0 min 26 W/m 12,9 km/h (3 Bft) 96,36 %
29.10.2018 15:42 6,2 C 5,6 C 5,6 C 84 % 998,2 hPa 0,0 l/m 0 min 0 min 25 W/m 22,5 km/h (4 Bft) 97,87 %
29.10.2018 15:44 6,2 C 5,6 C 5,6 C 84 % 998,1 hPa 0,0 l/m 0 min 0 min 32 W/m 16,1 km/h (3 Bft) 97,87 %
29.10.2018 15:46 6,2 C 5,6 C 5,6 C 84 % 998,1 hPa 0,0 l/m 0 min 0 min 35 W/m 12,9 km/h (3 Bft) 97,87 %
29.10.2018 15:48 6,2 C 5,6 C 5,6 C 84 % 998,0 hPa 0,0 l/m 0 min 0 min 31 W/m 9,7 km/h (2 Bft) 97,87 %
29.10.2018 15:50 6,2 C 5,6 C 5,6 C 84 % 998,0 hPa 0,0 l/m 0 min 0 min 25 W/m 9,7 km/h (2 Bft) 97,96 %
29.10.2018 15:52 6,2 C 5,6 C 5,6 C 84 % 998,0 hPa 0,0 l/m 0 min 0 min 23 W/m 9,7 km/h (2 Bft) 97,14 %
29.10.2018 15:54 6,2 C 5,6 C 5,6 C 84 % 998,0 hPa 0,0 l/m 0 min 0 min 21 W/m 9,7 km/h (2 Bft) 100,00 %
29.10.2018 15:56 6,2 C 5,6 C 5,0 C 84 % 997,9 hPa 0,0 l/m 0 min 0 min 21 W/m 12,9 km/h (3 Bft) 100,00 %
29.10.2018 15:58 6,2 C 5,6 C 5,0 C 84 % 997,9 hPa 0,0 l/m 0 min 0 min 21 W/m 19,3 km/h (3 Bft) 100,00 %
29.10.2018 16:00 6,2 C 5,6 C 5,0 C 84 % 997,9 hPa 0,0 l/m 0 min 0 min 19 W/m 12,9 km/h (3 Bft) 97,87 %
29.10.2018 16:02 6,2 C 5,6 C 5,0 C 84 % 998,0 hPa 0,0 l/m 0 min 0 min 18 W/m 16,1 km/h (3 Bft) 100,00 %
29.10.2018 16:04 6,2 C 5,6 C 5,0 C 84 % 997,9 hPa 0,0 l/m 0 min 0 min 18 W/m 12,9 km/h (3 Bft) 100,00 %
29.10.2018 16:08 6,1 C 5,6 C 5,0 C 84 % 997,8 hPa 0,0 l/m 0 min 0 min 17 W/m 12,9 km/h (3 Bft) 96,77 %
29.10.2018 16:10 6,1 C 5,6 C 5,0 C 84 % 997,8 hPa 0,0 l/m 0 min 0 min 18 W/m 16,1 km/h (3 Bft) 98,21 %
29.10.2018 16:12 6,1 C 5,6 C 5,0 C 84 % 997,8 hPa 0,0 l/m 0 min 0 min 18 W/m 16,1 km/h (3 Bft) 97,37 %
29.10.2018 16:14 6,1 C 5,6 C 5,0 C 84 % 997,6 hPa 0,0 l/m 0 min 0 min 20 W/m 12,9 km/h (3 Bft) 97,87 %
29.10.2018 16:16 6,1 C 5,6 C 5,0 C 84 % 997,6 hPa 0,0 l/m 0 min 0 min 19 W/m 19,3 km/h (3 Bft) 100,00 %
29.10.2018 16:18 6,1 C 5,6 C 5,0 C 84 % 997,6 hPa 0,0 l/m 0 min 0 min 18 W/m 12,9 km/h (3 Bft) 100,00 %
29.10.2018 16:20 6,1 C 5,6 C 5,0 C 84 % 997,4 hPa 0,0 l/m 0 min 0 min 17 W/m 16,1 km/h (3 Bft) 98,31 %
29.10.2018 16:22 6,1 C 5,6 C 5,0 C 84 % 997,4 hPa 0,0 l/m 0 min 0 min 18 W/m 19,3 km/h (3 Bft) 97,14 %
29.10.2018 16:24 6,1 C 5,6 C 5,0 C 84 % 997,3 hPa 0,0 l/m 0 min 0 min 18 W/m 16,1 km/h (3 Bft) 97,87 %
29.10.2018 16:26 6,1 C 5,6 C 5,0 C 84 % 997,4 hPa 0,0 l/m 0 min 0 min 18 W/m 25,7 km/h (4 Bft) 97,87 %
29.10.2018 16:28 6,0 C 5,6 C 5,0 C 84 % 997,4 hPa 0,0 l/m 0 min 0 min 19 W/m 22,5 km/h (4 Bft) 97,83 %
29.10.2018 16:30 6,0 C 5,6 C 5,0 C 84 % 997,3 hPa 0,0 l/m 0 min 0 min 20 W/m 38,6 km/h (5 Bft) 95,74 %
29.10.2018 16:32 6,0 C 5,6 C 5,0 C 84 % 997,2 hPa 0,0 l/m 0 min 0 min 18 W/m 16,1 km/h (3 Bft) 97,87 %
29.10.2018 16:34 6,0 C 5,6 C 5,0 C 85 % 997,2 hPa 0,0 l/m 0 min 0 min 19 W/m 12,9 km/h (3 Bft) 97,87 %
29.10.2018 16:38 6,0 C 5,6 C 5,0 C 85 % 997,2 hPa 0,0 l/m 0 min 0 min 18 W/m 16,1 km/h (3 Bft) 96,81 %
29.10.2018 16:40 6,0 C 5,6 C 5,0 C 85 % 997,2 hPa 0,0 l/m 0 min 0 min 13 W/m 12,9 km/h (3 Bft) 95,74 %
29.10.2018 16:42 6,0 C 5,6 C 5,0 C 85 % 997,1 hPa 0,0 l/m 0 min 0 min 11 W/m 6,4 km/h (2 Bft) 95,74 %
29.10.2018 16:44 6,0 C 5,6 C 5,0 C 85 % 997,1 hPa 0,0 l/m 0 min 0 min 9 W/m 12,9 km/h (3 Bft) 97,87 %
29.10.2018 16:46 6,0 C 5,6 C 5,0 C 85 % 997,2 hPa 0,0 l/m 0 min 0 min 9 W/m 9,7 km/h (2 Bft) 97,96 %
29.10.2018 16:48 5,9 C 5,6 C 5,0 C 85 % 997,1 hPa 0,0 l/m 0 min 0 min 9 W/m 12,9 km/h (3 Bft) 97,87 %
29.10.2018 16:50 6,0 C 5,6 C 5,0 C 85 % 997,0 hPa 0,0 l/m 0 min 0 min 9 W/m 16,1 km/h (3 Bft) 97,87 %
29.10.2018 16:52 6,0 C 5,6 C 5,0 C 85 % 996,9 hPa 0,0 l/m 0 min 0 min 9 W/m 16,1 km/h (3 Bft) 93,62 %
29.10.2018 16:54 5,9 C 5,6 C 5,0 C 85 % 996,8 hPa 0,0 l/m 0 min 0 min 10 W/m 16,1 km/h (3 Bft) 95,65 %
29.10.2018 16:56 5,9 C 5,6 C 5,0 C 85 % 996,7 hPa 0,0 l/m 0 min 0 min 11 W/m 16,1 km/h (3 Bft) 95,74 %
29.10.2018 16:58 5,9 C 5,6 C 5,0 C 85 % 996,7 hPa 0,0 l/m 0 min 0 min 11 W/m 22,5 km/h (4 Bft) 95,74 %
29.10.2018 17:00 5,9 C 5,6 C 5,0 C 85 % 996,6 hPa 0,0 l/m 0 min 0 min 11 W/m 19,3 km/h (3 Bft) 96,23 %
29.10.2018 17:02 5,9 C 5,6 C 5,0 C 85 % 996,6 hPa 0,0 l/m 0 min 0 min 9 W/m 16,1 km/h (3 Bft) 97,37 %
29.10.2018 17:04 5,9 C 5,6 C 5,0 C 85 % 996,6 hPa 0,0 l/m 0 min 0 min 7 W/m 16,1 km/h (3 Bft) 95,74 %
29.10.2018 17:08 5,9 C 5,6 C 5,0 C 85 % 996,5 hPa 0,0 l/m 0 min 0 min 8 W/m 19,3 km/h (3 Bft) 96,88 %
29.10.2018 17:10 5,9 C 5,6 C 5,0 C 85 % 996,4 hPa 0,0 l/m 0 min 0 min 5 W/m 25,7 km/h (4 Bft) 97,87 %
29.10.2018 17:12 5,9 C 5,6 C 5,0 C 85 % 996,4 hPa 0,0 l/m 0 min 0 min 2 W/m 16,1 km/h (3 Bft) 97,87 %
29.10.2018 17:14 5,9 C 5,6 C 5,0 C 85 % 996,4 hPa 0,0 l/m 0 min 0 min 0 W/m 9,7 km/h (2 Bft) 95,74 %
29.10.2018 17:16 5,9 C 5,6 C 5,0 C 85 % 996,4 hPa 0,0 l/m 0 min 0 min 0 W/m 12,9 km/h (3 Bft) 97,87 %
29.10.2018 17:18 5,9 C 5,6 C 5,0 C 85 % 996,3 hPa 0,0 l/m 0 min 0 min 0 W/m 25,7 km/h (4 Bft) 97,83 %
29.10.2018 17:20 5,9 C 5,6 C 5,0 C 85 % 996,2 hPa 0,0 l/m 0 min 0 min 0 W/m 12,9 km/h (3 Bft) 97,87 %
29.10.2018 17:22 5,9 C 5,6 C 5,0 C 85 % 996,1 hPa 0,0 l/m 0 min 0 min 0 W/m 19,3 km/h (3 Bft) 97,87 %
29.10.2018 17:24 5,9 C 5,0 C 5,0 C 85 % 996,0 hPa 0,0 l/m 0 min 0 min 0 W/m 19,3 km/h (3 Bft) 97,87 %
29.10.2018 17:26 5,8 C 5,0 C 5,0 C 85 % 996,0 hPa 0,0 l/m 0 min 0 min 0 W/m 25,7 km/h (4 Bft) 97,87 %
29.10.2018 17:28 5,8 C 5,0 C 5,0 C 85 % 996,1 hPa 0,0 l/m 0 min 0 min 0 W/m 9,7 km/h (2 Bft) 97,87 %
29.10.2018 17:30 5,8 C 5,0 C 5,0 C 86 % 996,1 hPa 0,0 l/m 0 min 0 min 0 W/m 12,9 km/h (3 Bft) 97,83 %
29.10.2018 17:32 5,8 C 5,0 C 5,0 C 86 % 996,1 hPa 0,0 l/m 0 min 0 min 0 W/m 16,1 km/h (3 Bft) 97,87 %
29.10.2018 17:34 5,8 C 5,0 C 5,0 C 86 % 996,0 hPa 0,0 l/m 0 min 0 min 0 W/m 16,1 km/h (3 Bft) 97,87 %
29.10.2018 17:38 5,8 C 5,0 C 5,0 C 86 % 995,9 hPa 0,0 l/m 0 min 0 min 0 W/m 16,1 km/h (3 Bft) 97,87 %
29.10.2018 17:40 5,8 C 5,0 C 5,0 C 86 % 996,0 hPa 0,0 l/m 0 min 0 min 0 W/m 12,9 km/h (3 Bft) 97,83 %
29.10.2018 17:42 5,8 C 5,0 C 5,0 C 86 % 996,0 hPa 0,0 l/m 0 min 0 min 0 W/m 16,1 km/h (3 Bft) 95,74 %
29.10.2018 17:44 5,8 C 5,0 C 5,0 C 86 % 996,1 hPa 0,0 l/m 0 min 0 min 0 W/m 16,1 km/h (3 Bft) 97,87 %
29.10.2018 17:46 5,8 C 5,0 C 5,0 C 86 % 995,9 hPa 0,0 l/m 0 min 0 min 0 W/m 25,7 km/h (4 Bft) 97,73 %
29.10.2018 17:48 5,7 C 5,0 C 5,0 C 86 % 995,9 hPa 0,0 l/m 0 min 0 min 0 W/m 16,1 km/h (3 Bft) 97,87 %
29.10.2018 17:50 5,7 C 5,0 C 5,0 C 86 % 995,9 hPa 0,0 l/m 0 min 0 min 0 W/m 22,5 km/h (4 Bft) 98,28 %
29.10.2018 17:52 5,7 C 5,0 C 5,0 C 86 % 995,9 hPa 0,0 l/m 0 min 0 min 0 W/m 16,1 km/h (3 Bft) 88,57 %
29.10.2018 17:54 5,7 C 5,0 C 5,0 C 86 % 995,8 hPa 0,0 l/m 0 min 0 min 0 W/m 9,7 km/h (2 Bft) 95,74 %
29.10.2018 17:56 5,7 C 5,0 C 5,0 C 86 % 995,8 hPa 0,0 l/m 0 min 0 min 0 W/m 19,3 km/h (3 Bft) 98,00 %
29.10.2018 17:58 5,7 C 5,0 C 5,0 C 86 % 995,8 hPa 0,0 l/m 0 min 0 min 0 W/m 12,9 km/h (3 Bft) 95,74 %
29.10.2018 18:00 5,7 C 5,0 C 5,0 C 86 % 995,8 hPa 0,0 l/m 0 min 0 min 0 W/m 22,5 km/h (4 Bft) 95,65 %
29.10.2018 18:02 5,7 C 5,0 C 5,0 C 86 % 995,9 hPa 0,0 l/m 0 min 0 min 0 W/m 16,1 km/h (3 Bft) 93,62 %
29.10.2018 18:04 5,7 C 5,0 C 5,0 C 87 % 995,9 hPa 0,0 l/m 0 min 0 min 0 W/m 16,1 km/h (3 Bft) 97,87 %
29.10.2018 18:08 5,6 C 5,0 C 5,0 C 87 % 995,7 hPa 0,0 l/m 0 min 0 min 0 W/m 22,5 km/h (4 Bft) 96,81 %
29.10.2018 18:10 5,6 C 5,0 C 5,0 C 87 % 995,7 hPa 0,0 l/m 0 min 0 min 0 W/m 19,3 km/h (3 Bft) 95,74 %
29.10.2018 18:12 5,6 C 5,0 C 5,0 C 87 % 995,7 hPa 0,0 l/m 0 min 0 min 0 W/m 16,1 km/h (3 Bft) 97,87 %
29.10.2018 18:14 5,6 C 5,0 C 5,0 C 87 % 995,8 hPa 0,0 l/m 0 min 0 min 0 W/m 29,0 km/h (5 Bft) 95,74 %
29.10.2018 18:16 5,6 C 5,0 C 5,0 C 87 % 995,8 hPa 0,0 l/m 0 min 0 min 0 W/m 16,1 km/h (3 Bft) 95,65 %
29.10.2018 18:18 5,6 C 5,0 C 5,0 C 87 % 995,8 hPa 0,0 l/m 0 min 0 min 0 W/m 25,7 km/h (4 Bft) 97,87 %
29.10.2018 18:20 5,6 C 5,0 C 5,0 C 87 % 995,6 hPa 0,0 l/m 0 min 0 min 0 W/m 22,5 km/h (4 Bft) 95,74 %
29.10.2018 18:22 5,6 C 5,0 C 5,0 C 87 % 995,7 hPa 0,0 l/m 0 min 0 min 0 W/m 16,1 km/h (3 Bft) 97,87 %
29.10.2018 18:24 5,6 C 5,0 C 5,0 C 87 % 995,6 hPa 0,0 l/m 0 min 0 min 0 W/m 19,3 km/h (3 Bft) 97,87 %
29.10.2018 18:26 5,6 C 5,0 C 5,0 C 87 % 995,5 hPa 0,0 l/m 0 min 0 min 0 W/m 19,3 km/h (3 Bft) 95,74 %
29.10.2018 18:28 5,6 C 5,0 C 4,4 C 87 % 995,5 hPa 0,0 l/m 0 min 0 min 0 W/m 16,1 km/h (3 Bft) 96,23 %
29.10.2018 18:30 5,6 C 5,0 C 5,0 C 87 % 995,5 hPa 0,0 l/m 0 min 0 min 0 W/m 12,9 km/h (3 Bft) 97,87 %
29.10.2018 18:32 5,5 C 5,0 C 5,0 C 87 % 995,5 hPa 0,0 l/m 0 min 0 min 0 W/m 22,5 km/h (4 Bft) 95,74 %
29.10.2018 18:34 5,5 C 5,0 C 5,0 C 87 % 995,4 hPa 0,0 l/m 0 min 0 min 0 W/m 22,5 km/h (4 Bft) 95,65 %
29.10.2018 18:38 5,5 C 5,0 C 4,4 C 88 % 995,3 hPa 0,0 l/m 0 min 0 min 0 W/m 22,5 km/h (4 Bft) 98,94 %
29.10.2018 18:40 5,5 C 5,0 C 4,4 C 88 % 995,2 hPa 0,0 l/m 0 min 0 min 0 W/m 25,7 km/h (4 Bft) 100,00 %
29.10.2018 18:42 5,5 C 5,0 C 4,4 C 88 % 995,1 hPa 0,0 l/m 0 min 0 min 0 W/m 9,7 km/h (2 Bft) 93,62 %
29.10.2018 18:44 5,5 C 5,0 C 4,4 C 88 % 995,1 hPa 0,0 l/m 0 min 0 min 0 W/m 16,1 km/h (3 Bft) 97,87 %
29.10.2018 18:46 5,5 C 5,0 C 4,4 C 88 % 995,1 hPa 0,0 l/m 0 min 0 min 0 W/m 22,5 km/h (4 Bft) 100,00 %
29.10.2018 18:48 5,5 C 5,0 C 4,4 C 88 % 995,1 hPa 0,0 l/m 0 min 0 min 0 W/m 25,7 km/h (4 Bft) 100,00 %
29.10.2018 18:50 5,5 C 5,0 C 4,4 C 88 % 995,1 hPa 0,0 l/m 0 min 0 min 0 W/m 25,7 km/h (4 Bft) 94,92 %
29.10.2018 18:52 5,4 C 5,0 C 4,4 C 88 % 995,0 hPa 0,0 l/m 0 min 0 min 0 W/m 12,9 km/h (3 Bft) 97,87 %
29.10.2018 18:54 5,4 C 5,0 C 4,4 C 88 % 995,1 hPa 0,0 l/m 0 min 0 min 0 W/m 25,7 km/h (4 Bft) 100,00 %
29.10.2018 18:56 5,4 C 5,0 C 4,4 C 88 % 995,1 hPa 0,0 l/m 0 min 0 min 0 W/m 16,1 km/h (3 Bft) 97,87 %
29.10.2018 18:58 5,4 C 5,0 C 4,4 C 88 % 995,0 hPa 0,0 l/m 0 min 0 min 0 W/m 19,3 km/h (3 Bft) 97,87 %
29.10.2018 19:00 5,4 C 5,0 C 4,4 C 88 % 995,0 hPa 0,0 l/m 0 min 0 min 0 W/m 9,7 km/h (2 Bft) 97,83 %
29.10.2018 19:02 5,4 C 5,0 C 4,4 C 88 % 995,1 hPa 0,0 l/m 0 min 0 min 0 W/m 16,1 km/h (3 Bft) 95,74 %
29.10.2018 19:04 5,4 C 5,0 C 4,4 C 88 % 995,0 hPa 0,0 l/m 0 min 0 min 0 W/m 16,1 km/h (3 Bft) 97,87 %
29.10.2018 19:08 5,4 C 5,0 C 4,4 C 88 % 994,9 hPa 0,0 l/m 0 min 0 min 0 W/m 16,1 km/h (3 Bft) 96,91 %
29.10.2018 19:10 5,4 C 5,0 C 4,4 C 88 % 995,0 hPa 0,0 l/m 0 min 0 min 0 W/m 22,5 km/h (4 Bft) 97,83 %
29.10.2018 19:12 5,4 C 5,0 C 4,4 C 89 % 995,0 hPa 0,0 l/m 0 min 0 min 0 W/m 19,3 km/h (3 Bft) 97,87 %
29.10.2018 19:14 5,4 C 5,0 C 4,4 C 89 % 994,9 hPa 0,0 l/m 0 min 0 min 0 W/m 19,3 km/h (3 Bft) 91,49 %
29.10.2018 19:16 5,4 C 5,0 C 4,4 C 89 % 994,8 hPa 0,0 l/m 0 min 0 min 0 W/m 29,0 km/h (5 Bft) 97,87 %
29.10.2018 19:18 5,4 C 5,0 C 4,4 C 89 % 994,8 hPa 0,0 l/m 0 min 0 min 0 W/m 19,3 km/h (3 Bft) 97,87 %
29.10.2018 19:20 5,4 C 5,0 C 4,4 C 89 % 994,6 hPa 0,0 l/m 0 min 0 min 0 W/m 19,3 km/h (3 Bft) 97,87 %
29.10.2018 19:22 5,3 C 5,0 C 4,4 C 89 % 994,6 hPa 0,0 l/m 0 min 0 min 0 W/m 16,1 km/h (3 Bft) 97,83 %
29.10.2018 19:24 5,4 C 5,0 C 4,4 C 89 % 994,6 hPa 0,0 l/m 0 min 0 min 0 W/m 6,4 km/h (2 Bft) 97,87 %
29.10.2018 19:26 5,3 C 5,0 C 4,4 C 89 % 994,5 hPa 0,0 l/m 0 min 0 min 0 W/m 25,7 km/h (4 Bft) 95,74 %
29.10.2018 19:28 5,3 C 5,0 C 4,4 C 89 % 994,5 hPa 0,0 l/m 0 min 0 min 0 W/m 12,9 km/h (3 Bft) 97,87 %
29.10.2018 19:30 5,3 C 5,0 C 4,4 C 89 % 994,5 hPa 0,0 l/m 0 min 0 min 0 W/m 22,5 km/h (4 Bft) 97,87 %
29.10.2018 19:32 5,3 C 5,0 C 4,4 C 89 % 994,5 hPa 0,0 l/m 0 min 0 min 0 W/m 12,9 km/h (3 Bft) 97,87 %
29.10.2018 19:34 5,3 C 5,0 C 4,4 C 89 % 994,5 hPa 0,0 l/m 0 min 0 min 0 W/m 12,9 km/h (3 Bft) 97,83 %
29.10.2018 19:38 5,3 C 5,0 C 4,4 C 89 % 994,5 hPa 0,0 l/m 0 min 0 min 0 W/m 16,1 km/h (3 Bft) 97,87 %
29.10.2018 19:40 5,3 C 5,0 C 4,4 C 89 % 994,4 hPa 0,0 l/m 0 min 0 min 0 W/m 12,9 km/h (3 Bft) 100,00 %
29.10.2018 19:42 5,3 C 5,0 C 4,4 C 89 % 994,4 hPa 0,0 l/m 0 min 0 min 0 W/m 16,1 km/h (3 Bft) 100,00 %
29.10.2018 19:44 5,3 C 5,0 C 4,4 C 89 % 994,3 hPa 0,0 l/m 0 min 0 min 0 W/m 12,9 km/h (3 Bft) 100,00 %
29.10.2018 19:46 5,3 C 5,0 C 4,4 C 89 % 994,2 hPa 0,0 l/m 0 min 0 min 0 W/m 16,1 km/h (3 Bft) 100,00 %
29.10.2018 19:48 5,3 C 5,0 C 4,4 C 89 % 994,1 hPa 0,0 l/m 0 min 0 min 0 W/m 16,1 km/h (3 Bft) 97,87 %
29.10.2018 19:50 5,3 C 5,0 C 4,4 C 89 % 994,0 hPa 0,0 l/m 0 min 0 min 0 W/m 16,1 km/h (3 Bft) 100,00 %
29.10.2018 19:52 5,3 C 5,0 C 4,4 C 89 % 994,0 hPa 0,0 l/m 0 min 0 min 0 W/m 9,7 km/h (2 Bft) 100,00 %
29.10.2018 19:54 5,3 C 5,0 C 4,4 C 89 % 994,1 hPa 0,0 l/m 0 min 0 min 0 W/m 9,7 km/h (2 Bft) 97,87 %
29.10.2018 19:56 5,3 C 5,0 C 4,4 C 89 % 994,0 hPa 0,0 l/m 0 min 0 min 0 W/m 22,5 km/h (4 Bft) 100,00 %
29.10.2018 19:58 5,3 C 5,0 C 4,4 C 89 % 993,8 hPa 0,0 l/m 0 min 0 min 0 W/m 19,3 km/h (3 Bft) 100,00 %
29.10.2018 20:00 5,3 C 5,0 C 4,4 C 89 % 993,8 hPa 0,0 l/m 0 min 0 min 0 W/m 16,1 km/h (3 Bft) 100,00 %
29.10.2018 20:02 5,3 C 5,0 C 4,4 C 89 % 993,7 hPa 0,0 l/m 0 min 0 min 0 W/m 12,9 km/h (3 Bft) 93,62 %
29.10.2018 20:04 5,3 C 5,0 C 4,4 C 89 % 993,7 hPa 0,0 l/m 0 min 0 min 0 W/m 12,9 km/h (3 Bft) 95,74 %
29.10.2018 20:08 5,3 C 5,0 C 5,0 C 89 % 993,8 hPa 0,0 l/m 0 min 0 min 0 W/m 16,1 km/h (3 Bft) 100,00 %
29.10.2018 20:10 5,3 C 5,0 C 4,4 C 89 % 993,8 hPa 0,0 l/m 0 min 0 min 0 W/m 9,7 km/h (2 Bft) 100,00 %
29.10.2018 20:12 5,3 C 5,0 C 5,0 C 89 % 993,8 hPa 0,0 l/m 0 min 0 min 0 W/m 9,7 km/h (2 Bft) 97,14 %
29.10.2018 20:14 5,3 C 5,0 C 4,4 C 89 % 993,7 hPa 0,0 l/m 0 min 0 min 0 W/m 6,4 km/h (2 Bft) 100,00 %
29.10.2018 20:16 5,3 C 5,0 C 4,4 C 89 % 993,8 hPa 0,0 l/m 0 min 0 min 0 W/m 12,9 km/h (3 Bft) 100,00 %
29.10.2018 20:18 5,3 C 5,0 C 5,0 C 89 % 993,7 hPa 0,0 l/m 0 min 0 min 0 W/m 16,1 km/h (3 Bft) 100,00 %
29.10.2018 20:20 5,3 C 5,0 C 4,4 C 89 % 993,6 hPa 0,0 l/m 0 min 0 min 0 W/m 12,9 km/h (3 Bft) 100,00 %
29.10.2018 20:22 5,3 C 5,0 C 5,0 C 88 % 993,5 hPa 0,0 l/m 0 min 0 min 0 W/m 12,9 km/h (3 Bft) 100,00 %
29.10.2018 20:24 5,3 C 5,0 C 4,4 C 88 % 993,5 hPa 0,0 l/m 0 min 0 min 0 W/m 12,9 km/h (3 Bft) 100,00 %
29.10.2018 20:26 5,3 C 5,0 C 4,4 C 88 % 993,3 hPa 0,0 l/m 0 min 0 min 0 W/m 16,1 km/h (3 Bft) 95,65 %
29.10.2018 20:28 5,3 C 5,0 C 4,4 C 88 % 993,2 hPa 0,0 l/m 0 min 0 min 0 W/m 19,3 km/h (3 Bft) 100,00 %
29.10.2018 20:30 5,3 C 5,0 C 4,4 C 88 % 993,1 hPa 0,0 l/m 0 min 0 min 0 W/m 12,9 km/h (3 Bft) 100,00 %
29.10.2018 20:32 5,3 C 5,0 C 4,4 C 88 % 993,1 hPa 0,0 l/m 0 min 0 min 0 W/m 12,9 km/h (3 Bft) 100,00 %
29.10.2018 20:34 5,3 C 5,0 C 4,4 C 88 % 993,0 hPa 0,0 l/m 0 min 0 min 0 W/m 16,1 km/h (3 Bft) 100,00 %
29.10.2018 20:38 5,3 C 5,0 C 4,4 C 88 % 992,8 hPa 0,0 l/m 0 min 0 min 0 W/m 22,5 km/h (4 Bft) 98,92 %
29.10.2018 20:40 5,3 C 5,0 C 4,4 C 88 % 992,8 hPa 0,0 l/m 0 min 0 min 0 W/m 16,1 km/h (3 Bft) 95,74 %
29.10.2018 20:42 5,3 C 5,0 C 4,4 C 88 % 992,6 hPa 0,0 l/m 0 min 0 min 0 W/m 19,3 km/h (3 Bft) 95,74 %
29.10.2018 20:44 5,3 C 5,0 C 4,4 C 88 % 992,4 hPa 0,0 l/m 0 min 0 min 0 W/m 22,5 km/h (4 Bft) 95,74 %
29.10.2018 20:46 5,3 C 5,0 C 4,4 C 88 % 992,5 hPa 0,0 l/m 0 min 0 min 0 W/m 19,3 km/h (3 Bft) 95,74 %
29.10.2018 20:48 5,3 C 5,0 C 4,4 C 88 % 992,6 hPa 0,0 l/m 0 min 0 min 0 W/m 19,3 km/h (3 Bft) 93,62 %
29.10.2018 20:50 5,3 C 5,0 C 4,4 C 88 % 992,7 hPa 0,0 l/m 0 min 0 min 0 W/m 16,1 km/h (3 Bft) 91,30 %
29.10.2018 20:52 5,3 C 5,0 C 4,4 C 88 % 992,7 hPa 0,0 l/m 0 min 0 min 0 W/m 32,2 km/h (5 Bft) 93,62 %
29.10.2018 20:54 5,3 C 5,0 C 4,4 C 88 % 992,6 hPa 0,0 l/m 0 min 0 min 0 W/m 19,3 km/h (3 Bft) 93,62 %
29.10.2018 20:56 5,3 C 5,0 C 4,4 C 88 % 992,7 hPa 0,0 l/m 0 min 0 min 0 W/m 16,1 km/h (3 Bft) 95,74 %
29.10.2018 20:58 5,3 C 5,0 C 4,4 C 88 % 992,8 hPa 0,0 l/m 0 min 0 min 0 W/m 9,7 km/h (2 Bft) 95,74 %
29.10.2018 21:00 5,3 C 5,0 C 4,4 C 88 % 992,8 hPa 0,0 l/m 0 min 0 min 0 W/m 16,1 km/h (3 Bft) 95,65 %
29.10.2018 21:02 5,3 C 5,0 C 4,4 C 88 % 992,9 hPa 0,0 l/m 0 min 0 min 0 W/m 12,9 km/h (3 Bft) 95,83 %
29.10.2018 21:04 5,3 C 5,0 C 4,4 C 88 % 992,9 hPa 0,0 l/m 0 min 0 min 0 W/m 12,9 km/h (3 Bft) 96,30 %
29.10.2018 21:08 5,3 C 5,0 C 4,4 C 88 % 992,8 hPa 0,0 l/m 0 min 0 min 0 W/m 12,9 km/h (3 Bft) 94,32 %
29.10.2018 21:10 5,3 C 5,0 C 4,4 C 88 % 992,9 hPa 0,0 l/m 0 min 0 min 0 W/m 9,7 km/h (2 Bft) 93,62 %
29.10.2018 21:12 5,3 C 5,0 C 4,4 C 88 % 992,9 hPa 0,0 l/m 0 min 0 min 0 W/m 12,9 km/h (3 Bft) 93,48 %
29.10.2018 21:14 5,3 C 5,0 C 4,4 C 88 % 993,0 hPa 0,0 l/m 0 min 0 min 0 W/m 9,7 km/h (2 Bft) 93,62 %
29.10.2018 21:16 5,3 C 5,0 C 4,4 C 88 % 993,1 hPa 0,0 l/m 0 min 0 min 0 W/m 9,7 km/h (2 Bft) 92,86 %
29.10.2018 21:18 5,3 C 5,0 C 4,4 C 88 % 993,1 hPa 0,0 l/m 0 min 0 min 0 W/m 16,1 km/h (3 Bft) 92,11 %
29.10.2018 21:20 5,3 C 5,0 C 4,4 C 88 % 993,1 hPa 0,0 l/m 0 min 0 min 0 W/m 22,5 km/h (4 Bft) 94,83 %
29.10.2018 21:22 5,3 C 5,0 C 4,4 C 88 % 993,1 hPa 0,0 l/m 0 min 0 min 0 W/m 16,1 km/h (3 Bft) 94,29 %
29.10.2018 21:24 5,3 C 5,0 C 4,4 C 88 % 993,1 hPa 0,0 l/m 0 min 0 min 0 W/m 12,9 km/h (3 Bft) 95,74 %
29.10.2018 21:26 5,3 C 5,0 C 4,4 C 88 % 993,0 hPa 0,0 l/m 0 min 0 min 0 W/m 22,5 km/h (4 Bft) 97,87 %
29.10.2018 21:28 5,3 C 5,0 C 4,4 C 88 % 992,7 hPa 0,0 l/m 0 min 0 min 0 W/m 12,9 km/h (3 Bft) 95,74 %
29.10.2018 21:30 5,3 C 5,0 C 4,4 C 88 % 992,6 hPa 0,0 l/m 0 min 0 min 0 W/m 12,9 km/h (3 Bft) 95,74 %
29.10.2018 21:32 5,3 C 5,0 C 4,4 C 88 % 992,5 hPa 0,0 l/m 0 min 0 min 0 W/m 12,9 km/h (3 Bft) 91,30 %
29.10.2018 21:34 5,3 C 5,0 C 4,4 C 88 % 992,5 hPa 0,0 l/m 0 min 0 min 0 W/m 19,3 km/h (3 Bft) 95,74 %
29.10.2018 21:38 5,3 C 5,0 C 4,4 C 88 % 992,3 hPa 0,0 l/m 0 min 0 min 0 W/m 16,1 km/h (3 Bft) 94,68 %
29.10.2018 21:40 5,3 C 5,0 C 4,4 C 88 % 992,4 hPa 0,0 l/m 0 min 0 min 0 W/m 12,9 km/h (3 Bft) 93,62 %
29.10.2018 21:42 5,3 C 5,0 C 4,4 C 88 % 992,4 hPa 0,0 l/m 0 min 0 min 0 W/m 9,7 km/h (2 Bft) 91,49 %
29.10.2018 21:44 5,3 C 5,0 C 4,4 C 88 % 992,2 hPa 0,0 l/m 0 min 0 min 0 W/m 6,4 km/h (2 Bft) 95,65 %
29.10.2018 21:46 5,3 C 5,0 C 4,4 C 89 % 992,0 hPa 0,0 l/m 0 min 0 min 0 W/m 9,7 km/h (2 Bft) 97,87 %
29.10.2018 21:48 5,3 C 5,0 C 4,4 C 89 % 991,8 hPa 0,0 l/m 0 min 0 min 0 W/m 19,3 km/h (3 Bft) 97,87 %
29.10.2018 21:50 5,3 C 5,0 C 4,4 C 89 % 991,5 hPa 0,0 l/m 0 min 0 min 0 W/m 12,9 km/h (3 Bft) 96,61 %
29.10.2018 21:52 5,3 C 5,0 C 4,4 C 89 % 991,4 hPa 0,0 l/m 0 min 0 min 0 W/m 9,7 km/h (2 Bft) 94,59 %
29.10.2018 21:54 5,3 C 5,0 C 4,4 C 89 % 991,4 hPa 0,0 l/m 0 min 0 min 0 W/m 29,0 km/h (5 Bft) 95,74 %
29.10.2018 21:56 5,3 C 5,0 C 4,4 C 89 % 991,3 hPa 0,0 l/m 0 min 0 min 0 W/m 22,5 km/h (4 Bft) 95,74 %
29.10.2018 21:58 5,3 C 4,4 C 4,4 C 89 % 991,2 hPa 0,0 l/m 0 min 0 min 0 W/m 16,1 km/h (3 Bft) 97,83 %
29.10.2018 22:00 5,3 C 4,4 C 4,4 C 89 % 991,3 hPa 0,0 l/m 0 min 0 min 0 W/m 9,7 km/h (2 Bft) 97,87 %
29.10.2018 22:02 5,2 C 4,4 C 4,4 C 89 % 991,2 hPa 0,0 l/m 0 min 0 min 0 W/m 19,3 km/h (3 Bft) 97,92 %
29.10.2018 22:04 5,2 C 4,4 C 4,4 C 89 % 991,0 hPa 0,0 l/m 0 min 0 min 0 W/m 22,5 km/h (4 Bft) 95,74 %
29.10.2018 22:08 5,2 C 4,4 C 4,4 C 89 % 991,0 hPa 0,0 l/m 0 min 0 min 0 W/m 12,9 km/h (3 Bft) 97,87 %
29.10.2018 22:10 5,2 C 4,4 C 4,4 C 89 % 991,0 hPa 0,0 l/m 0 min 0 min 0 W/m 22,5 km/h (4 Bft) 97,83 %
29.10.2018 22:12 5,2 C 4,4 C 4,4 C 89 % 990,9 hPa 0,0 l/m 0 min 0 min 0 W/m 32,2 km/h (5 Bft) 100,00 %
29.10.2018 22:14 5,2 C 4,4 C 4,4 C 89 % 990,9 hPa 0,0 l/m 0 min 0 min 0 W/m 16,1 km/h (3 Bft) 100,00 %
29.10.2018 22:16 5,2 C 4,4 C 4,4 C 89 % 991,0 hPa 0,0 l/m 0 min 0 min 0 W/m 16,1 km/h (3 Bft) 100,00 %
29.10.2018 22:18 5,2 C 4,4 C 4,4 C 89 % 991,0 hPa 0,0 l/m 0 min 0 min 0 W/m 16,1 km/h (3 Bft) 100,00 %
29.10.2018 22:20 5,2 C 4,4 C 4,4 C 89 % 991,0 hPa 0,0 l/m 0 min 0 min 0 W/m 22,5 km/h (4 Bft) 100,00 %
29.10.2018 22:22 5,2 C 4,4 C 4,4 C 89 % 990,9 hPa 0,0 l/m 0 min 0 min 0 W/m 12,9 km/h (3 Bft) 100,00 %
29.10.2018 22:24 5,2 C 4,4 C 4,4 C 89 % 991,0 hPa 0,0 l/m 0 min 0 min 0 W/m 19,3 km/h (3 Bft) 95,74 %
29.10.2018 22:26 5,2 C 4,4 C 4,4 C 89 % 991,0 hPa 0,0 l/m 0 min 0 min 0 W/m 16,1 km/h (3 Bft) 100,00 %
29.10.2018 22:28 5,2 C 4,4 C 4,4 C 89 % 991,0 hPa 0,0 l/m 0 min 0 min 0 W/m 19,3 km/h (3 Bft) 100,00 %
29.10.2018 22:30 5,2 C 4,4 C 4,4 C 89 % 991,0 hPa 0,0 l/m 0 min 0 min 0 W/m 29,0 km/h (5 Bft) 100,00 %
29.10.2018 22:32 5,2 C 4,4 C 4,4 C 90 % 990,8 hPa 0,0 l/m 0 min 0 min 0 W/m 16,1 km/h (3 Bft) 97,87 %
29.10.2018 22:34 5,2 C 4,4 C 4,4 C 90 % 990,9 hPa 0,0 l/m 0 min 0 min 0 W/m 16,1 km/h (3 Bft) 100,00 %
29.10.2018 22:38 5,2 C 4,4 C 4,4 C 90 % 990,8 hPa 0,0 l/m 0 min 0 min 0 W/m 19,3 km/h (3 Bft) 100,00 %
29.10.2018 22:40 5,1 C 4,4 C 4,4 C 90 % 990,8 hPa 0,0 l/m 0 min 0 min 0 W/m 19,3 km/h (3 Bft) 100,00 %
29.10.2018 22:42 5,1 C 4,4 C 4,4 C 90 % 990,8 hPa 0,0 l/m 0 min 0 min 0 W/m 9,7 km/h (2 Bft) 100,00 %
29.10.2018 22:44 5,1 C 4,4 C 4,4 C 90 % 990,7 hPa 0,0 l/m 0 min 0 min 0 W/m 12,9 km/h (3 Bft) 97,87 %
29.10.2018 22:46 5,1 C 4,4 C 4,4 C 90 % 990,5 hPa 0,0 l/m 0 min 0 min 0 W/m 22,5 km/h (4 Bft) 100,00 %
29.10.2018 22:48 5,1 C 4,4 C 4,4 C 90 % 990,5 hPa 0,0 l/m 0 min 0 min 0 W/m 12,9 km/h (3 Bft) 100,00 %
29.10.2018 22:50 5,1 C 4,4 C 4,4 C 90 % 990,2 hPa 0,0 l/m 0 min 0 min 0 W/m 19,3 km/h (3 Bft) 100,00 %
29.10.2018 22:52 5,1 C 4,4 C 4,4 C 90 % 990,0 hPa 0,0 l/m 0 min 0 min 0 W/m 19,3 km/h (3 Bft) 100,00 %
29.10.2018 22:54 5,1 C 4,4 C 4,4 C 90 % 989,9 hPa 0,0 l/m 0 min 0 min 0 W/m 9,7 km/h (2 Bft) 100,00 %
29.10.2018 22:56 5,1 C 4,4 C 4,4 C 90 % 989,9 hPa 0,0 l/m 0 min 0 min 0 W/m 22,5 km/h (4 Bft) 97,87 %
29.10.2018 22:58 5,0 C 4,4 C 4,4 C 90 % 989,8 hPa 0,0 l/m 0 min 0 min 0 W/m 22,5 km/h (4 Bft) 100,00 %
29.10.2018 23:00 5,0 C 4,4 C 4,4 C 90 % 989,7 hPa 0,0 l/m 0 min 0 min 0 W/m 22,5 km/h (4 Bft) 97,87 %
29.10.2018 23:02 5,0 C 4,4 C 4,4 C 90 % 989,5 hPa 0,0 l/m 0 min 0 min 0 W/m 16,1 km/h (3 Bft) 97,87 %
29.10.2018 23:04 5,0 C 4,4 C 4,4 C 90 % 989,3 hPa 0,0 l/m 0 min 0 min 0 W/m 32,2 km/h (5 Bft) 100,00 %
29.10.2018 23:08 5,0 C 4,4 C 3,9 C 91 % 989,4 hPa 0,0 l/m 0 min 0 min 0 W/m 38,6 km/h (5 Bft) 100,00 %
29.10.2018 23:10 4,9 C 4,4 C 3,9 C 91 % 989,3 hPa 0,0 l/m 0 min 0 min 0 W/m 19,3 km/h (3 Bft) 100,00 %
29.10.2018 23:12 4,9 C 4,4 C 3,9 C 91 % 989,3 hPa 0,0 l/m 0 min 0 min 0 W/m 12,9 km/h (3 Bft) 100,00 %
29.10.2018 23:14 4,9 C 4,4 C 3,9 C 91 % 989,2 hPa 0,0 l/m 0 min 0 min 0 W/m 16,1 km/h (3 Bft) 100,00 %
29.10.2018 23:16 4,9 C 4,4 C 4,4 C 91 % 989,1 hPa 0,0 l/m 0 min 0 min 0 W/m 12,9 km/h (3 Bft) 95,12 %
29.10.2018 23:18 4,9 C 4,4 C 3,9 C 91 % 989,1 hPa 0,0 l/m 0 min 0 min 0 W/m 22,5 km/h (4 Bft) 100,00 %
29.10.2018 23:20 4,9 C 4,4 C 3,9 C 91 % 989,1 hPa 0,0 l/m 0 min 0 min 0 W/m 25,7 km/h (4 Bft) 100,00 %
29.10.2018 23:22 4,9 C 4,4 C 3,9 C 91 % 989,2 hPa 0,0 l/m 0 min 0 min 0 W/m 29,0 km/h (5 Bft) 100,00 %
29.10.2018 23:24 4,9 C 4,4 C 3,9 C 91 % 989,1 hPa 0,0 l/m 0 min 0 min 0 W/m 12,9 km/h (3 Bft) 100,00 %
29.10.2018 23:26 4,9 C 4,4 C 3,9 C 91 % 989,0 hPa 0,0 l/m 0 min 0 min 0 W/m 9,7 km/h (2 Bft) 97,87 %
29.10.2018 23:28 4,9 C 4,4 C 3,9 C 91 % 989,0 hPa 0,0 l/m 0 min 0 min 0 W/m 22,5 km/h (4 Bft) 97,87 %
29.10.2018 23:30 4,9 C 4,4 C 3,9 C 91 % 988,9 hPa 0,0 l/m 0 min 0 min 0 W/m 32,2 km/h (5 Bft) 93,62 %
29.10.2018 23:32 4,9 C 4,4 C 3,9 C 91 % 988,9 hPa 0,0 l/m 0 min 0 min 0 W/m 25,7 km/h (4 Bft) 97,83 %
29.10.2018 23:34 4,9 C 4,4 C 3,9 C 91 % 988,9 hPa 0,0 l/m 0 min 0 min 0 W/m 22,5 km/h (4 Bft) 93,62 %
29.10.2018 23:38 4,8 C 4,4 C 3,9 C 91 % 988,8 hPa 0,0 l/m 0 min 0 min 0 W/m 25,7 km/h (4 Bft) 97,87 %
29.10.2018 23:40 4,8 C 4,4 C 3,9 C 91 % 988,8 hPa 0,0 l/m 0 min 0 min 0 W/m 29,0 km/h (5 Bft) 97,87 %
29.10.2018 23:42 4,8 C 4,4 C 3,9 C 91 % 988,8 hPa 0,0 l/m 0 min 0 min 0 W/m 22,5 km/h (4 Bft) 97,96 %
29.10.2018 23:44 4,8 C 4,4 C 3,9 C 91 % 988,8 hPa 0,0 l/m 0 min 2 min 0 W/m 25,7 km/h (4 Bft) 97,83 %
29.10.2018 23:46 4,8 C 4,4 C 3,9 C 91 % 988,7 hPa 0,0 l/m 0 min 2 min 0 W/m 22,5 km/h (4 Bft) 95,74 %
29.10.2018 23:48 4,8 C 3,9 C 3,9 C 92 % 988,7 hPa 0,0 l/m 0 min 2 min 0 W/m 19,3 km/h (3 Bft) 91,49 %
29.10.2018 23:50 4,8 C 3,9 C 3,9 C 92 % 988,7 hPa 0,0 l/m 0 min 2 min 0 W/m 16,1 km/h (3 Bft) 95,74 %
29.10.2018 23:52 4,8 C 3,9 C 3,9 C 92 % 988,6 hPa 0,0 l/m 0 min 2 min 0 W/m 32,2 km/h (5 Bft) 97,87 %
29.10.2018 23:54 4,8 C 3,9 C 3,3 C 92 % 988,5 hPa 0,0 l/m 0 min 2 min 0 W/m 32,2 km/h (5 Bft) 97,87 %
29.10.2018 23:56 4,8 C 3,9 C 3,3 C 92 % 988,6 hPa 0,0 l/m 0 min 2 min 0 W/m 12,9 km/h (3 Bft) 93,48 %
29.10.2018 23:58 4,8 C 3,9 C 3,3 C 92 % 988,6 hPa 0,0 l/m 0 min 2 min 0 W/m 25,7 km/h (4 Bft) 95,74 %
_ Min-Zeit 04:24 23:48 23:54 14:58 23:54 - - - - 00:02 00:02
Minimum _ 4,8 C 3,9 C 3,3 C 83 % 988,5 hPa - - - - 6,4 km/h (2 Bft) 12,50 %
_ Max-Zeit 14:08 11:14 10:20 23:48 00:38 00:00 00:00 23:44 11:04 16:30 00:00
Maximum _ 6,5 C 6,7 C 5,6 C 92 % 1009,9 hPa 0,0 l/m 0 min 2 min 141 W/m 38,6 km/h
O-NO (5 Bft)
100,00 %
Durchschnitt _ 5,5 C 5,0 C 4,7 C 87 % 1001,2 hPa #0,0 l/m #0 min. #16 min. 47 W/m 15,5 km/h (3 Bft) 97,31 %
© 2018 W. Hausmann